CW2988 Weather Reports


Display with metric or nautical units.
time (UTC)temp
F
wind
direction
speed
MPH
gust
MPH
rain 1hr
in
rain 24hr
in
rain mn
in
humidity
%
barometer
mb
20171023204225 56 315 12.0 17.0 0.00 0.00 0.00 72 1007.4
20171023204123 56 290 12.0 17.0 0.00 0.00 0.00 74 1007.5
20171023204016 56 292 11.0 17.0 0.00 0.00 0.00 74 1007.5
20171023203918 56 290 10.0 17.0 0.00 0.00 0.00 75 1007.5
20171023203814 56 303 10.0 17.0 0.00 0.00 0.00 75 1007.5
20171023203709 56 302 10.0 17.0 0.00 0.00 0.00 76 1007.5
20171023203607 56 281 12.0 17.0 0.00 0.00 0.00 77 1007.5
20171023203520 55 290 13.0 17.0 0.00 0.00 0.00 76 1007.5
20171023203417 55 297 13.0 17.0 0.00 0.00 0.00 75 1007.5
20171023203316 55 307 12.0 15.0 0.00 0.00 0.00 75 1007.6
20171023203216 55 301 12.0 15.0 0.00 0.00 0.00 77 1007.5
20171023203112 55 298 11.0 14.0 0.00 0.00 0.00 77 1007.5
20171023203023 55 298 10.0 14.0 0.00 0.00 0.00 78 1007.5
20171023202919 55 296 9.0 12.0 0.00 0.00 0.00 79 1007.6
20171023202818 55 296 8.0 12.0 0.00 0.00 0.00 79 1007.5
20171023202713 55 302 9.0 12.0 0.00 0.00 0.00 78 1007.5
20171023202611 54 297 9.0 12.0 0.00 0.00 0.00 80 1007.5
20171023202507 54 311 9.0 11.0 0.00 0.00 0.00 79 1007.5
20171023202405 54 294 8.0 11.0 0.00 0.00 0.00 78 1007.5
20171023202325 54 297 8.0 11.0 0.00 0.00 0.00 81 1007.5
20171023202223 54 292 7.0 10.0 0.00 0.00 0.00 81 1007.5
20171023202121 54 288 8.0 10.0 0.00 0.00 0.00 81 1007.5
20171023201922 54 285 7.0 10.0 0.00 0.00 0.00 80 1007.5
20171023201819 54 285 6.0 9.0 0.00 0.00 0.00 80 1007.5
20171023201715 53 295 6.0 9.0 0.00 0.00 0.00 80 1007.5
20171023201611 53 294 5.0 9.0 0.00 0.00 0.00 81 1007.6
20171023201526 53 286 5.0 9.0 0.00 0.00 0.00 81 1007.6
20171023201425 53 290 6.0 9.0 0.00 0.00 0.00 80 1007.6
20171023201324 53 290 7.0 9.0 0.00 0.00 0.00 79 1007.7
20171023201220 53 283 7.0 9.0 0.00 0.00 0.00 79 1007.7
20171023201118 53 283 7.0 9.0 0.00 0.00 0.00 80 1007.7
20171023201015 53 284 6.0 9.0 0.00 0.00 0.00 80 1007.8
20171023200911 53 284 7.0 9.0 0.00 0.00 0.00 80 1007.8
20171023200806 53 285 7.0 10.0 0.00 0.00 0.00 80 1007.8
20171023200722 53 294 7.0 10.0 0.00 0.00 0.00 80 1007.8
20171023200621 53 294 7.0 10.0 0.00 0.00 0.00 80 1007.8
20171023200509 53 293 7.0 10.0 0.00 0.00 0.00 80 1007.8
20171023200427 54 284 6.0 11.0 0.00 0.00 0.00 79 1007.8
20171023200323 54 290 6.0 11.0 0.00 0.00 0.00 79 1007.8
20171023200226 54 306 7.0 11.0 0.00 0.00 0.00 79 1007.7
20171023200120 54 299 8.0 11.0 0.00 0.00 0.00 78 1007.7
20171023200012 54 306 8.0 13.0 0.00 0.00 0.00 78 1007.7
20171023195907 54 313 8.0 13.0 0.00 0.00 0.00 78 1007.7
20171023195826 54 314 8.0 13.0 0.00 0.00 0.00 78 1007.7
20171023195723 54 300 8.0 13.0 0.00 0.00 0.00 78 1007.6
20171023195620 54 311 9.0 13.0 0.00 0.00 0.00 78 1007.7
20171023195516 54 299 10.0 13.0 0.00 0.00 0.00 77 1007.7
20171023195415 54 296 9.0 13.0 0.00 0.00 0.00 78 1007.7
20171023195310 54 306 9.0 13.0 0.00 0.00 0.00 77 1007.7
20171023195229 54 304 9.0 13.0 0.00 0.00 0.00 77 1007.7
20171023195122 54 313 8.0 13.0 0.00 0.00 0.00 77 1007.7
20171023195015 54 310 8.0 11.0 0.00 0.00 0.00 78 1007.7
20171023194910 54 306 7.0 10.0 0.00 0.00 0.00 78 1007.8
20171023194826 54 306 7.0 10.0 0.00 0.00 0.00 78 1007.8
20171023194723 54 298 7.0 10.0 0.00 0.00 0.00 78 1007.7
20171023194616 54 311 6.0 10.0 0.00 0.00 0.00 78 1007.7
20171023194525 54 308 5.0 9.0 0.00 0.00 0.00 77 1007.7
20171023194421 54 304 5.0 9.0 0.00 0.00 0.00 77 1007.7
20171023194318 54 313 5.0 9.0 0.00 0.00 0.00 79 1007.6
20171023194216 54 296 6.0 9.0 0.00 0.00 0.00 77 1007.7
20171023194118 54 311 6.0 9.0 0.00 0.00 0.00 77 1007.6
20171023194011 54 321 5.0 9.0 0.00 0.00 0.00 77 1007.6
20171023193909 54 313 6.0 9.0 0.00 0.00 0.00 78 1007.6
20171023193807 54 313 5.0 9.0 0.00 0.00 0.00 77 1007.6
20171023193727 54 313 5.0 9.0 0.00 0.00 0.00 78 1007.6
20171023193622 54 329 3.0 9.0 0.00 0.00 0.00 80 1007.7
20171023193516 54 304 4.0 9.0 0.00 0.00 0.00 80 1007.8
20171023193418 54 304 4.0 9.0 0.00 0.00 0.00 79 1007.8
20171023193316 54 306 4.0 9.0 0.00 0.00 0.00 79 1007.8
20171023193215 54 306 5.0 9.0 0.00 0.00 0.00 78 1007.8
20171023193111 54 302 6.0 9.0 0.00 0.00 0.00 78 1007.9
20171023193025 54 312 6.0 9.0 0.00 0.00 0.00 79 1007.9
20171023192917 54 295 6.0 9.0 0.00 0.00 0.00 77 1007.9
20171023192814 54 297 6.0 9.0 0.00 0.00 0.00 78 1007.9
20171023192717 54 309 7.0 9.0 0.00 0.00 0.00 77 1007.9
20171023192615 54 317 7.0 9.0 0.00 0.00 0.00 76 1007.9
20171023192508 54 301 6.0 9.0 0.00 0.00 0.00 77 1007.9
20171023192406 54 298 6.0 12.0 0.00 0.00 0.00 78 1007.9
20171023192223 54 322 5.0 12.0 0.00 0.00 0.00 78 1008.0
20171023192121 54 319 5.0 12.0 0.00 0.00 0.00 77 1008.0
20171023192019 54 313 6.0 14.0 0.00 0.00 0.00 78 1008.0
20171023191918 54 327 6.0 14.0 0.00 0.00 0.00 76 1007.9
20171023191817 54 314 7.0 14.0 0.00 0.00 0.00 77 1008.0
20171023191713 54 320 8.0 14.0 0.00 0.00 0.00 76 1008.0
20171023191606 54 313 8.0 14.0 0.00 0.00 0.00 76 1008.0
20171023191521 54 320 8.0 16.0 0.00 0.00 0.00 76 1008.0
20171023191420 54 318 9.0 16.0 0.00 0.00 0.00 76 1008.0
20171023191322 54 306 10.0 17.0 0.00 0.00 0.00 75 1008.0
20171023191218 55 310 10.0 17.0 0.00 0.00 0.00 74 1008.0
20171023191112 55 319 11.0 17.0 0.00 0.00 0.00 74 1008.0
20171023191027 55 319 11.0 17.0 0.00 0.00 0.00 74 1008.0
20171023190821 55 321 12.0 19.0 0.00 0.00 0.00 72 1007.9
20171023190717 55 315 13.0 19.0 0.00 0.00 0.00 72 1007.9
20171023190617 55 317 13.0 19.0 0.00 0.00 0.00 71 1007.9
20171023190510 55 321 13.0 19.0 0.00 0.00 0.00 71 1007.9
20171023190408 55 316 14.0 19.0 0.00 0.00 0.00 70 1007.8
20171023190326 55 311 14.0 19.0 0.00 0.00 0.00 70 1007.8
20171023190224 56 314 12.0 19.0 0.00 0.00 0.00 69 1007.8
20171023190123 56 306 9.0 18.0 0.00 0.00 0.00 71 1007.8
20171023190014 56 313 10.0 18.0 0.00 0.00 0.00 71 1007.9
20171023185912 56 310 11.0 18.0 0.00 0.00 0.00 70 1007.9
20171023185827 56 317 11.0 18.0 0.00 0.00 0.00 71 1007.9
20171023185725 56 322 12.0 18.0 0.00 0.00 0.00 70 1007.9
20171023185620 56 301 13.0 18.0 0.00 0.00 0.00 69 1007.9
20171023185511 56 311 14.0 18.0 0.00 0.00 0.00 69 1007.9
20171023185410 56 314 14.0 18.0 0.00 0.00 0.00 68 1007.8
20171023185309 56 318 13.0 19.0 0.00 0.00 0.00 68 1007.9
20171023185208 56 321 12.0 19.0 0.00 0.00 0.00 68 1008.0
20171023185127 56 298 11.0 19.0 0.00 0.00 0.00 69 1008.0
20171023185016 57 307 11.0 19.0 0.00 0.00 0.00 69 1008.0
20171023184914 57 319 12.0 19.0 0.00 0.00 0.00 69 1008.0
20171023184809 57 311 13.0 20.0 0.00 0.00 0.00 68 1008.0
20171023184726 57 311 13.0 20.0 0.00 0.00 0.00 67 1008.0
20171023184627 57 317 13.0 20.0 0.00 0.00 0.00 68 1008.1
20171023184518 57 304 14.0 21.0 0.00 0.00 0.00 68 1008.1
20171023184419 57 316 14.0 21.0 0.00 0.00 0.00 67 1008.1
20171023184316 57 319 14.0 21.0 0.00 0.00 0.00 67 1008.1
20171023184214 57 302 15.0 21.0 0.00 0.00 0.00 66 1008.1
20171023184111 57 305 15.0 22.0 0.00 0.00 0.00 66 1008.2
20171023184027 57 290 15.0 24.0 0.00 0.00 0.00 66 1008.2
20171023183925 57 306 16.0 24.0 0.00 0.00 0.00 67 1008.2
20171023183823 57 321 16.0 24.0 0.00 0.00 0.00 64 1008.1
20171023183725 58 309 15.0 24.0 0.00 0.00 0.00 64 1008.1
20171023183624 58 307 15.0 24.0 0.00 0.00 0.00 66 1008.2
20171023183410 58 306 18.0 24.0 0.00 0.00 0.00 65 1008.4
20171023183324 58 316 17.0 24.0 0.00 0.00 0.00 65 1008.4
20171023183219 58 294 18.0 24.0 0.00 0.00 0.00 66 1008.4
20171023183117 58 302 18.0 22.0 0.00 0.00 0.00 66 1008.3
20171023183009 58 290 15.0 22.0 0.00 0.00 0.00 66 1008.3
20171023182827 58 295 10.0 14.0 0.00 0.00 0.00 68 1008.3
20171023182725 58 285 9.0 13.0 0.00 0.00 0.00 68 1008.4
20171023182624 58 317 9.0 12.0 0.00 0.00 0.00 69 1008.5
20171023182517 58 293 9.0 12.0 0.00 0.00 0.00 68 1008.5
20171023182412 57 290 9.0 12.0 0.00 0.00 0.00 68 1008.6
20171023182315 57 294 9.0 12.0 0.00 0.00 0.00 67 1008.5
20171023182213 57 291 8.0 12.0 0.00 0.00 0.00 68 1008.4
20171023182111 57 290 9.0 12.0 0.00 0.00 0.00 66 1008.4
20171023182024 57 302 9.0 12.0 0.00 0.00 0.00 67 1008.4
20171023181923 57 313 9.0 12.0 0.00 0.00 0.00 66 1008.4
20171023181821 57 314 8.0 11.0 0.00 0.00 0.00 67 1008.3
20171023181719 57 311 7.0 9.0 0.00 0.00 0.00 67 1008.3
20171023181614 57 323 6.0 10.0 0.00 0.00 0.00 69 1008.1
20171023181523 57 315 6.0 10.0 0.00 0.00 0.00 68 1008.1
20171023181420 57 316 6.0 10.0 0.00 0.00 0.00 67 1008.1
20171023181316 57 315 6.0 10.0 0.00 0.00 0.00 67 1008.1
20171023181214 57 298 7.0 10.0 0.00 0.00 0.00 67 1008.2
20171023181109 57 319 7.0 10.0 0.00 0.00 0.00 67 1008.2
20171023181018 57 302 7.0 10.0 0.00 0.00 0.00 68 1008.2
20171023180917 57 302 7.0 10.0 0.00 0.00 0.00 68 1008.3
20171023180815 57 302 7.0 10.0 0.00 0.00 0.00 69 1008.4
20171023180714 57 324 7.0 9.0 0.00 0.00 0.00 68 1008.4
20171023180609 57 312 7.0 9.0 0.00 0.00 0.00 68 1008.4
20171023180518 57 321 7.0 9.0 0.00 0.00 0.00 68 1008.4
20171023180416 57 306 6.0 9.0 0.00 0.00 0.00 68 1008.5
20171023180312 56 326 5.0 9.0 0.00 0.00 0.00 68 1008.4
20171023180213 56 293 5.0 9.0 0.00 0.00 0.00 68 1008.4
20171023180109 56 335 6.0 9.0 0.00 0.00 0.00 68 1008.4
20171023180021 56 317 7.0 9.0 0.00 0.00 0.00 69 1008.4
20171023175919 56 315 7.0 10.0 0.00 0.00 0.00 68 1008.4
20171023175817 56 315 6.0 10.0 0.00 0.00 0.00 68 1008.5
20171023175714 56 319 5.0 10.0 0.00 0.00 0.00 69 1008.4
20171023175505 56 320 6.0 11.0 0.00 0.00 0.00 68 1008.5
20171023175424 56 317 6.0 11.0 0.00 0.00 0.00 68 1008.5
20171023175322 56 329 6.0 11.0 0.00 0.00 0.00 70 1008.5
20171023175220 56 312 7.0 11.0 0.00 0.00 0.00 68 1008.4
20171023175117 56 319 7.0 11.0 0.00 0.00 0.00 70 1008.5
20171023175008 56 327 8.0 11.0 0.00 0.00 0.00 69 1008.5
20171023174926 56 327 7.0 11.0 0.00 0.00 0.00 70 1008.5
20171023174807 55 340 8.0 11.0 0.00 0.00 0.00 68 1008.6
20171023174726 55 313 8.0 11.0 0.00 0.00 0.00 68 1008.6
20171023174624 55 314 7.0 10.0 0.00 0.00 0.00 70 1008.5
20171023174515 55 304 7.0 12.0 0.00 0.00 0.00 71 1008.5
20171023174412 55 316 7.0 12.0 0.00 0.00 0.00 69 1008.4
20171023174307 55 320 6.0 13.0 0.00 0.00 0.00 70 1008.3
20171023174223 55 327 6.0 13.0 0.00 0.00 0.00 70 1008.3
20171023174120 55 331 6.0 13.0 0.00 0.00 0.00 71 1008.3
20171023174018 55 323 6.0 13.0 0.00 0.00 0.00 70 1008.2
20171023173917 55 329 7.0 13.0 0.00 0.00 0.00 68 1008.1
20171023173816 55 347 8.0 13.0 0.00 0.00 0.00 68 1008.1
20171023173713 55 338 9.0 13.0 0.00 0.00 0.00 68 1008.1
20171023173612 55 346 8.0 13.0 0.00 0.00 0.00 69 1008.0
20171023173526 55 337 7.0 13.0 0.00 0.00 0.00 69 1008.0
20171023173407 55 340 6.0 12.0 0.00 0.00 0.00 70 1008.1
20171023173324 55 319 6.0 12.0 0.00 0.00 0.00 71 1008.1
20171023173222 55 344 7.0 12.0 0.00 0.00 0.00 70 1008.1
20171023173116 55 335 9.0 13.0 0.00 0.00 0.00 69 1008.2
20171023173011 55 325 9.0 13.0 0.00 0.00 0.00 70 1008.3
20171023172907 55 315 8.0 14.0 0.00 0.00 0.00 70 1008.3
20171023172821 55 319 8.0 15.0 0.00 0.00 0.00 70 1008.3
20171023172717 55 303 9.0 15.0 0.00 0.00 0.00 70 1008.4
20171023172622 55 315 9.0 15.0 0.00 0.00 0.00 70 1008.4
20171023172525 55 319 8.0 15.0 0.00 0.00 0.00 70 1008.4
20171023172423 55 323 9.0 15.0 0.00 0.00 0.00 70 1008.4
20171023172321 55 312 9.0 15.0 0.00 0.00 0.00 69 1008.5
20171023172209 55 308 11.0 15.0 0.00 0.00 0.00 69 1008.5
20171023172130 55 324 11.0 15.0 0.00 0.00 0.00 70 1008.5
20171023172015 55 326 10.0 15.0 0.00 0.00 0.00 69 1008.5
20171023171919 55 318 8.0 14.0 0.00 0.00 0.00 69 1008.5
20171023171818 55 338 8.0 11.0 0.00 0.00 0.00 70 1008.6
20171023171716 55 333 8.0 11.0 0.00 0.00 0.00 70 1008.7
20171023171612 55 311 8.0 11.0 0.00 0.00 0.00 70 1008.7
20171023171518 55 321 7.0 11.0 0.00 0.00 0.00 69 1008.7
20171023171416 55 344 7.0 11.0 0.00 0.00 0.00 69 1008.6
20171023171314 55 344 8.0 11.0 0.00 0.00 0.00 70 1008.6
20171023171216 55 317 8.0 13.0 0.00 0.00 0.00 70 1008.6
20171023171112 55 350 8.0 14.0 0.00 0.00 0.00 68 1008.6
20171023171027 55 323 8.0 16.0 0.00 0.00 0.00 69 1008.6
20171023170924 55 331 8.0 16.0 0.00 0.00 0.00 71 1008.7
20171023170818 55 295 9.0 16.0 0.00 0.00 0.00 70 1008.7
20171023170714 55 306 9.0 16.0 0.00 0.00 0.00 69 1008.7
20171023170609 54 309 9.0 16.0 0.00 0.00 0.00 70 1008.8
20171023170523 54 313 10.0 16.0 0.00 0.00 0.00 69 1008.8
20171023170425 54 309 11.0 16.0 0.00 0.00 0.00 68 1008.8
20171023170323 54 304 11.0 16.0 0.00 0.00 0.00 69 1008.8
20171023170219 54 296 10.0 16.0 0.00 0.00 0.00 71 1008.8
20171023165927 54 300 11.0 15.0 0.00 0.00 0.00 69 1008.8
20171023165824 54 293 9.0 15.0 0.00 0.00 0.00 69 1008.7
20171023165720 54 292 9.0 15.0 0.00 0.00 0.00 71 1008.6
20171023165618 54 284 9.0 15.0 0.00 0.00 0.00 71 1008.6
20171023165511 54 284 10.0 15.0 0.00 0.00 0.00 69 1008.7
20171023165407 54 282 8.0 15.0 0.00 0.00 0.00 71 1008.6
20171023165326 54 290 8.0 15.0 0.00 0.00 0.00 70 1008.6
20171023165225 54 312 9.0 15.0 0.00 0.00 0.00 72 1008.9
20171023165120 54 299 10.0 15.0 0.00 0.00 0.00 70 1008.9
20171023165012 54 295 10.0 15.0 0.00 0.00 0.00 70 1008.7
20171023164914 53 294 10.0 15.0 0.00 0.00 0.00 68 1008.8
20171023164812 53 296 11.0 15.0 0.00 0.00 0.00 70 1008.7
20171023164728 53 296 10.0 15.0 0.00 0.00 0.00 69 1008.7
20171023164623 53 303 9.0 15.0 0.00 0.00 0.00 68 1008.6
20171023164513 53 279 8.0 15.0 0.00 0.00 0.00 72 1008.6
20171023164312 53 273 10.0 15.0 0.00 0.00 0.00 69 1008.7
20171023164213 53 291 11.0 15.0 0.00 0.00 0.00 70 1008.8
20171023164111 53 288 11.0 15.0 0.00 0.00 0.00 70 1008.8
20171023164022 53 286 12.0 15.0 0.00 0.00 0.00 70 1008.8
20171023163917 53 290 11.0 14.0 0.00 0.00 0.00 72 1008.7
20171023163815 53 281 11.0 14.0 0.00 0.00 0.00 72 1008.9
20171023163712 53 278 10.0 14.0 0.00 0.00 0.00 72 1008.8
20171023163608 53 283 10.0 14.0 0.00 0.00 0.00 74 1008.8
20171023163527 53 302 9.0 14.0 0.00 0.00 0.00 73 1008.8
20171023163425 53 277 9.0 14.0 0.00 0.00 0.00 74 1008.8
20171023163320 53 279 10.0 14.0 0.00 0.00 0.00 73 1008.6
20171023163218 53 282 11.0 14.0 0.00 0.00 0.00 72 1008.7
20171023163116 53 276 10.0 14.0 0.00 0.00 0.00 72 1008.6
20171023163006 53 271 8.0 12.0 0.00 0.00 0.00 73 1008.7
20171023162926 53 267 8.0 12.0 0.00 0.00 0.00 73 1008.7
20171023162806 53 286 7.0 12.0 0.00 0.00 0.00 73 1008.7
20171023162727 53 277 7.0 12.0 0.00 0.00 0.00 74 1008.7
20171023162624 53 266 7.0 13.0 0.00 0.00 0.00 76 1008.7
20171023162513 52 285 7.0 13.0 0.00 0.00 0.00 77 1008.8
20171023162410 52 282 7.0 13.0 0.00 0.00 0.00 76 1008.9
20171023162327 52 266 7.0 13.0 0.00 0.00 0.00 76 1008.9
20171023162225 52 289 9.0 13.0 0.00 0.00 0.00 74 1008.8
20171023162125 52 281 9.0 13.0 0.00 0.00 0.00 75 1008.9
20171023162016 52 272 9.0 13.0 0.00 0.00 0.00 75 1008.8
20171023161914 52 275 9.0 13.0 0.00 0.00 0.00 74 1008.8
20171023161707 52 270 8.0 11.0 0.00 0.00 0.00 76 1008.8
20171023161624 52 277 8.0 11.0 0.00 0.00 0.00 76 1008.8
20171023161512 51 261 8.0 11.0 0.00 0.00 0.00 75 1008.9
20171023161411 51 279 8.0 11.0 0.00 0.00 0.00 76 1008.9
20171023161207 51 280 8.0 11.0 0.00 0.00 0.00 77 1009.0
20171023161126 51 285 8.0 11.0 0.00 0.00 0.00 77 1009.0
20171023161017 51 248 6.0 11.0 0.00 0.00 0.00 77 1009.0
20171023160915 51 272 6.0 11.0 0.00 0.00 0.00 79 1008.9
20171023160814 51 267 7.0 11.0 0.00 0.00 0.00 77 1009.0
20171023160713 51 236 9.0 11.0 0.00 0.00 0.00 77 1009.0
20171023160611 51 271 9.0 11.0 0.00 0.00 0.00 76 1009.0
20171023160522 51 253 9.0 11.0 0.00 0.00 0.00 78 1009.0
20171023160420 51 263 8.0 15.0 0.00 0.00 0.00 78 1009.0
20171023160317 51 258 8.0 15.0 0.00 0.00 0.00 77 1009.0
20171023160215 51 247 8.0 15.0 0.00 0.00 0.00 76 1009.0
20171023160112 51 266 8.0 15.0 0.00 0.00 0.00 79 1009.0
20171023160019 51 260 8.0 15.0 0.00 0.00 0.00 79 1009.0
20171023155921 51 243 8.0 15.0 0.00 0.00 0.00 79 1009.0
20171023155820 51 254 8.0 15.0 0.00 0.00 0.00 79 1009.0
20171023155716 51 242 9.0 15.0 0.00 0.00 0.00 76 1009.0
20171023155612 51 267 10.0 15.0 0.00 0.00 0.00 76 1009.1
20171023155522 51 242 10.0 12.0 0.00 0.00 0.00 77 1009.1
20171023155423 51 252 10.0 12.0 0.00 0.00 0.00 75 1009.1
20171023155320 51 262 10.0 12.0 0.00 0.00 0.00 77 1009.1
20171023155224 51 257 9.0 11.0 0.00 0.00 0.00 77 1009.2
20171023155123 51 245 9.0 11.0 0.00 0.00 0.00 78 1009.1
20171023155016 51 246 9.0 11.0 0.00 0.00 0.00 78 1009.1
20171023154909 51 247 7.0 11.0 0.00 0.00 0.00 78 1009.0
20171023154824 51 247 6.0 8.0 0.00 0.00 0.00 78 1009.0
20171023154616 51 243 6.0 7.0 0.00 0.00 0.00 79 1008.8
20171023154513 51 246 5.0 7.0 0.00 0.00 0.00 78 1008.8
20171023154412 51 243 5.0 9.0 0.00 0.00 0.00 80 1008.9
20171023154308 51 224 5.0 9.0 0.00 0.00 0.00 78 1008.9
20171023154226 51 241 5.0 12.0 0.00 0.00 0.00 78 1008.9
20171023154126 51 232 5.0 12.0 0.00 0.00 0.00 78 1008.8
20171023154016 51 236 5.0 12.0 0.00 0.00 0.00 78 1008.8
20171023153935 51 217 5.0 12.0 0.00 0.00 0.00 77 1008.8
20171023153809 51 242 5.0 12.0 0.00 0.00 0.00 78 1008.9
20171023153726 51 229 5.0 12.0 0.00 0.00 0.00 78 1008.9
20171023153626 51 229 6.0 12.0 0.00 0.00 0.00 78 1008.9
20171023153518 51 251 6.0 12.0 0.00 0.00 0.00 78 1009.0
20171023153418 51 236 7.0 12.0 0.00 0.00 0.00 76 1009.0
20171023153313 51 240 8.0 12.0 0.00 0.00 0.00 76 1009.0
20171023153212 51 265 7.0 11.0 0.00 0.00 0.00 77 1009.0
20171023153115 51 250 6.0 10.0 0.00 0.00 0.00 78 1009.1
20171023153011 51 231 6.0 10.0 0.00 0.00 0.00 78 1009.1
20171023152907 51 246 6.0 10.0 0.00 0.00 0.00 79 1009.1
20171023152830 51 244 7.0 11.0 0.00 0.00 0.00 79 1009.1
20171023152724 51 244 7.0 11.0 0.00 0.00 0.00 79 1009.1
20171023152514 51 245 8.0 11.0 0.00 0.00 0.00 78 1009.3
20171023152212 51 224 9.0 11.0 0.00 0.00 0.00 78 1009.5
20171023152109 51 224 9.0 11.0 0.00 0.00 0.00 80 1009.6
20171023152020 51 234 8.0 11.0 0.00 0.00 0.00 79 1009.6
20171023151919 51 221 7.0 10.0 0.00 0.00 0.00 81 1009.6
20171023151817 51 217 6.0 7.0 0.00 0.00 0.00 80 1009.6
20171023151717 51 200 6.0 7.0 0.00 0.00 0.00 80 1009.6
20171023151614 51 229 6.0 7.0 0.00 0.00 0.00 81 1009.6
20171023151521 51 221 5.0 7.0 0.00 0.00 0.00 81 1009.6
20171023151416 51 229 6.0 7.0 0.00 0.00 0.00 81 1009.5
20171023151312 51 210 6.0 7.0 0.00 0.00 0.00 81 1009.5
20171023151211 51 211 6.0 7.0 0.00 0.00 0.00 80 1009.5
20171023151107 50 219 5.0 7.0 0.00 0.00 0.00 81 1009.4
20171023151025 50 229 5.0 7.0 0.00 0.00 0.00 81 1009.4
20171023150921 50 215 4.0 7.0 0.00 0.00 0.00 82 1009.4
20171023150819 50 225 5.0 7.0 0.00 0.00 0.00 82 1009.4
20171023150715 50 229 5.0 7.0 0.00 0.00 0.00 83 1009.3
20171023150417 50 223 6.0 8.0 0.00 0.00 0.00 81 1009.2
20171023150350 50 232 5.0 8.0 0.00 0.00 0.00 82 1009.1
20171023145921 50 207 6.0 8.0 0.00 0.00 0.00 83 1009.1
20171023145819 50 222 5.0 8.0 0.00 0.00 0.00 83 1009.1
20171023145713 50 244 5.0 9.0 0.00 0.00 0.00 84 1009.1
20171023145614 50 234 4.0 9.0 0.00 0.00 0.00 83 1009.0
20171023145522 50 226 4.0 10.0 0.00 0.00 0.00 83 1009.0
20171023145420 50 232 5.0 10.0 0.00 0.00 0.00 84 1009.0
20171023145318 50 242 6.0 10.0 0.00 0.00 0.00 82 1009.0
20171023145216 50 238 6.0 10.0 0.00 0.00 0.00 82 1009.0
20171023145112 49 230 6.0 10.0 0.00 0.00 0.00 82 1009.1
20171023145027 49 222 7.0 10.0 0.00 0.00 0.00 83 1009.1
20171023144908 49 219 7.0 10.0 0.00 0.00 0.00 82 1009.2
20171023144720 49 228 7.0 10.0 0.00 0.00 0.00 83 1009.2
20171023144615 49 202 7.0 9.0 0.00 0.00 0.00 83 1009.2
20171023144522 49 219 7.0 9.0 0.00 0.00 0.00 83 1009.2
20171023144419 49 223 6.0 9.0 0.00 0.00 0.00 84 1009.3
20171023144316 49 205 6.0 9.0 0.00 0.00 0.00 85 1009.3
20171023144212 49 195 5.0 9.0 0.00 0.00 0.00 85 1009.5
20171023144112 49 207 5.0 10.0 0.00 0.00 0.00 86 1009.6
20171023144026 49 192 5.0 10.0 0.00 0.00 0.00 86 1009.6
20171023143925 49 210 5.0 10.0 0.00 0.00 0.00 86 1009.7
20171023143822 49 203 6.0 10.0 0.00 0.00 0.00 86 1009.8
20171023143719 48 205 7.0 10.0 0.00 0.00 0.00 86 1009.8
20171023143613 48 202 7.0 10.0 0.00 0.00 0.00 86 1009.8
20171023143527 48 185 7.0 10.0 0.00 0.00 0.00 86 1009.8
20171023143429 48 198 8.0 10.0 0.00 0.00 0.00 86 1009.8
20171023143323 48 176 8.0 10.0 0.00 0.00 0.00 86 1009.8
20171023143221 48 194 8.0 10.0 0.00 0.00 0.00 86 1010.0
20171023143116 48 160 7.0 10.0 0.00 0.00 0.00 87 1010.1
20171023143027 48 165 7.0 9.0 0.00 0.00 0.00 87 1010.1
20171023142924 48 157 6.0 9.0 0.00 0.00 0.00 87 1010.2
20171023142822 48 161 6.0 9.0 0.00 0.00 0.00 87 1010.2
20171023142621 48 178 5.0 7.0 0.00 0.00 0.00 88 1010.2
20171023142511 48 171 5.0 6.0 0.00 0.00 0.00 88 1010.2
20171023142307 48 184 4.0 6.0 0.00 0.00 0.00 88 1010.3
20171023142227 48 165 3.0 6.0 0.00 0.00 0.00 88 1010.3
20171023142119 48 164 0.0 5.0 0.00 0.00 0.00 88 1010.3
20171023142012 47 176 0.0 3.0 0.00 0.00 0.00 88 1010.4
20171023141820 47 195 0.0 5.0 0.00 0.00 0.00 88 1010.5
20171023141718 47 201 0.0 5.0 0.00 0.00 0.00 89 1010.5
20171023141613 47 217 1.0 5.0 0.00 0.00 0.00 89 1010.5
20171023141527 47 209 1.0 5.0 0.00 0.00 0.00 89 1010.5
20171023141419 47 215 2.0 6.0 0.00 0.00 0.00 89 1010.5
20171023141316 47 202 2.0 6.0 0.00 0.00 0.00 89 1010.3
20171023141217 47 163 3.0 6.0 0.00 0.00 0.00 89 1010.3
20171023141116 47 152 4.0 6.0 0.00 0.00 0.00 90 1010.1
20171023141006 47 150 4.0 6.0 0.00 0.00 0.00 89 1010.1
20171023140920 47 163 4.0 6.0 0.00 0.00 0.00 90 1010.1
20171023140816 47 150 4.0 6.0 0.00 0.00 0.00 90 1010.2
20171023140612 47 155 4.0 6.0 0.00 0.00 0.00 90 1010.2
20171023140526 46 182 4.0 6.0 0.00 0.00 0.00 90 1010.2
20171023140427 46 161 4.0 6.0 0.00 0.00 0.00 91 1010.2
20171023140325 46 155 4.0 6.0 0.00 0.00 0.00 91 1010.2
20171023140224 46 172 4.0 6.0 0.00 0.00 0.00 91 1010.2
20171023140122 46 168 4.0 6.0 0.00 0.00 0.00 91 1010.2
20171023140012 46 167 3.0 5.0 0.00 0.00 0.00 91 1010.1
20171023135909 46 163 4.0 6.0 0.00 0.00 0.00 91 1010.1
20171023135823 46 179 4.0 6.0 0.00 0.00 0.00 91 1010.1
20171023135719 46 171 4.0 6.0 0.00 0.00 0.00 91 1010.0
20171023135615 46 167 4.0 6.0 0.00 0.00 0.00 91 1010.0
20171023135525 46 173 4.0 6.0 0.00 0.00 0.00 91 1010.0
20171023135422 46 166 4.0 6.0 0.00 0.00 0.00 91 1010.0
20171023135315 45 186 5.0 6.0 0.00 0.00 0.00 92 1010.0
20171023135211 45 162 4.0 8.0 0.00 0.00 0.00 92 1010.0
20171023135112 45 167 4.0 8.0 0.00 0.00 0.00 92 1010.0
20171023135025 45 159 4.0 8.0 0.00 0.00 0.00 92 1010.0
20171023134923 45 180 4.0 8.0 0.00 0.00 0.00 92 1010.0
20171023134820 45 171 4.0 8.0 0.00 0.00 0.00 92 1010.1
20171023134717 45 148 5.0 8.0 0.00 0.00 0.00 92 1010.1
20171023134614 45 163 5.0 8.0 0.00 0.00 0.00 92 1010.1
20171023134525 45 146 6.0 8.0 0.00 0.00 0.00 92 1010.1
20171023134423 45 160 6.0 8.0 0.00 0.00 0.00 92 1010.2
20171023134326 45 151 6.0 8.0 0.00 0.00 0.00 92 1010.2
20171023134225 45 146 6.0 8.0 0.00 0.00 0.00 92 1010.3
20171023134124 45 151 6.0 8.0 0.00 0.00 0.00 92 1010.4
20171023134018 45 157 6.0 9.0 0.00 0.00 0.00 92 1010.4
20171023133916 45 154 6.0 9.0 0.00 0.00 0.00 92 1010.5
20171023133814 44 157 6.0 9.0 0.00 0.00 0.00 92 1010.5
20171023133717 44 141 6.0 9.0 0.00 0.00 0.00 92 1010.5
20171023133614 44 144 6.0 9.0 0.00 0.00 0.00 92 1010.5
20171023133527 44 157 6.0 9.0 0.00 0.00 0.00 92 1010.5
20171023133426 44 153 7.0 9.0 0.00 0.00 0.00 92 1010.5
20171023133320 44 156 7.0 11.0 0.00 0.00 0.00 92 1010.5
20171023133215 44 140 7.0 11.0 0.00 0.00 0.00 92 1010.5
20171023133110 44 146 6.0 11.0 0.00 0.00 0.00 92 1010.5
20171023133008 44 114 5.0 11.0 0.00 0.00 0.00 92 1010.5
20171023132906 44 138 5.0 11.0 0.00 0.00 0.00 92 1010.5
20171023132621 44 119 6.0 11.0 0.00 0.00 0.00 92 1010.5
20171023132511 44 143 6.0 11.0 0.00 0.00 0.00 92 1010.5
20171023132410 44 99 7.0 10.0 0.00 0.00 0.00 93 1010.6
20171023132313 44 129 6.0 12.0 0.00 0.00 0.00 93 1010.6
20171023132208 44 142 7.0 13.0 0.00 0.00 0.00 93 1010.6
20171023132127 44 130 7.0 13.0 0.00 0.00 0.00 93 1010.6
20171023132019 44 134 7.0 13.0 0.00 0.00 0.00 93 1010.7
20171023131918 43 147 8.0 13.0 0.00 0.00 0.00 93 1010.7
20171023131817 43 128 8.0 13.0 0.00 0.00 0.00 93 1010.7
20171023131615 43 130 7.0 13.0 0.00 0.00 0.00 94 1010.7
20171023131528 43 113 8.0 13.0 0.00 0.00 0.00 94 1010.7
20171023131424 43 144 7.0 13.0 0.00 0.00 0.00 94 1010.7
20171023131318 42 134 7.0 13.0 0.00 0.00 0.00 94 1010.7
20171023131213 42 119 7.0 13.0 0.00 0.00 0.00 94 1010.8
20171023131109 42 123 5.0 10.0 0.00 0.00 0.00 94 1010.8
20171023131023 42 109 5.0 9.0 0.00 0.00 0.00 94 1010.8
20171023130921 42 135 4.0 9.0 0.00 0.00 0.00 94 1010.8
20171023130823 42 121 4.0 9.0 0.00 0.00 0.00 94 1010.9
20171023130619 42 150 4.0 7.0 0.00 0.00 0.00 94 1010.9
20171023130410 42 144 4.0 7.0 0.00 0.00 0.00 94 1010.9
20171023130309 41 108 3.0 7.0 0.00 0.00 0.00 94 1010.9
20171023130212 41 127 3.0 9.0 0.00 0.00 0.00 94 1010.9
20171023130030 41 115 3.0 9.0 0.00 0.00 0.00 94 1010.8
20171023125917 41 142 3.0 11.0 0.00 0.00 0.00 94 1010.8
20171023125817 41 122 4.0 11.0 0.00 0.00 0.00 94 1010.7
20171023125713 41 119 4.0 11.0 0.00 0.01 0.00 94 1010.7
20171023125612 41 128 4.0 11.0 0.00 0.01 0.00 94 1010.7
20171023125526 41 106 4.0 11.0 0.00 0.01 0.00 94 1010.7
20171023125409 41 117 5.0 11.0 0.00 0.01 0.00 94 1010.7
20171023125308 41 111 5.0 11.0 0.00 0.01 0.00 94 1010.7
20171023125207 41 63 6.0 11.0 0.00 0.01 0.00 94 1010.7
20171023125105 41 140 6.0 11.0 0.00 0.01 0.00 94 1010.7
20171023125019 41 98 6.0 10.0 0.00 0.01 0.00 94 1010.7
20171023124914 41 148 5.0 10.0 0.00 0.01 0.00 94 1010.6
20171023124811 41 124 4.0 10.0 0.00 0.01 0.00 95 1010.5
20171023124714 41 111 4.0 10.0 0.00 0.01 0.00 95 1010.5
20171023124610 41 167 3.0 9.0 0.00 0.01 0.00 95 1010.4
20171023124524 40 109 3.0 9.0 0.00 0.01 0.00 95 1010.4
20171023124425 40 130 3.0 9.0 0.00 0.01 0.00 94 1010.4
20171023124324 40 129 4.0 9.0 0.00 0.01 0.00 94 1010.3
20171023124216 40 111 5.0 9.0 0.00 0.01 0.00 94 1010.3
20171023124113 40 94 5.0 10.0 0.00 0.01 0.00 94 1010.3
20171023124009 40 127 5.0 10.0 0.00 0.01 0.00 94 1010.4
20171023123906 40 116 4.0 10.0 0.00 0.01 0.00 94 1010.3
20171023123724 40 92 4.0 10.0 0.00 0.01 0.00 94 1010.3
20171023123623 40 105 4.0 10.0 0.00 0.01 0.00 93 1010.2
20171023123511 40 101 5.0 10.0 0.00 0.01 0.00 93 1010.2
20171023123407 40 127 7.0 10.0 0.00 0.01 0.00 93 1010.2
20171023123310 41 79 7.0 10.0 0.00 0.01 0.00 93 1010.3
20171023123206 41 102 6.0 9.0 0.00 0.01 0.00 92 1010.4
20171023123125 41 107 5.0 9.0 0.00 0.01 0.00 92 1010.4
20171023123017 41 111 5.0 9.0 0.00 0.01 0.00 92 1010.4
20171023122914 41 115 4.0 7.0 0.00 0.01 0.00 92 1010.4
20171023122814 41 130 4.0 7.0 0.00 0.01 0.00 93 1010.5
20171023122712 41 124 4.0 7.0 0.00 0.01 0.00 93 1010.5
20171023122611 42 129 5.0 7.0 0.00 0.01 0.00 95 1010.5
20171023122522 41 136 5.0 7.0 0.00 0.01 0.00 95 1010.5
20171023122419 41 134 4.0 6.0 0.00 0.01 0.00 95 1010.5
20171023122317 41 138 4.0 7.0 0.00 0.01 0.00 95 1010.5
20171023122215 41 134 3.0 7.0 0.00 0.01 0.00 95 1010.5
20171023122113 41 125 3.0 7.0 0.00 0.01 0.00 94 1010.5
20171023122006 41 119 4.0 7.0 0.00 0.01 0.00 94 1010.5
20171023121925 41 107 4.0 7.0 0.00 0.01 0.00 94 1010.5
20171023121818 41 109 4.0 7.0 0.00 0.01 0.00 94 1010.5
20171023121716 41 108 4.0 7.0 0.00 0.01 0.00 94 1010.5
20171023121616 41 144 5.0 7.0 0.00 0.01 0.00 94 1010.5
20171023121509 41 136 5.0 7.0 0.00 0.01 0.00 94 1010.4
20171023121324 41 113 2.0 5.0 0.00 0.01 0.00 95 1010.4
20171023121120 41 106 0.0 0.0 0.00 0.01 0.00 95 1010.4
20171023121012 41 119 0.0 0.0 0.00 0.01 0.00 95 1010.4
20171023120910 41 113 0.0 0.0 0.00 0.01 0.00 95 1010.4
20171023120806 41 121 0.0 0.0 0.00 0.01 0.00 95 1010.4
20171023120725 41 150 0.0 0.0 0.00 0.01 0.00 95 1010.4
20171023120623 41 150 0.0 0.0 0.00 0.01 0.00 95 1010.4
20171023120518 41 219 0.0 0.0 0.00 0.01 0.00 95 1010.4
20171023120417 41 219 0.0 0.0 0.00 0.01 0.00 95 1010.4
20171023120315 41 219 0.0 0.0 0.00 0.01 0.00 95 1010.4
20171023120211 41 219 0.0 0.0 0.00 0.01 0.00 95 1010.5
20171023120130 41 219 0.0 0.0 0.00 0.01 0.00 95 1010.5
20171023120006 41 219 0.0 0.0 0.00 0.01 0.00 95 1010.5
20171023115922 41 219 0.0 0.0 0.00 0.01 0.00 95 1010.5
20171023115817 41 219 0.0 0.0 0.00 0.01 0.00 95 1010.5
20171023115720 41 219 0.0 0.0 0.00 0.02 0.00 95 1010.5
20171023115616 41 219 0.0 0.0 0.00 0.02 0.00 95 1010.5
20171023115508 41 211 0.0 0.0 0.00 0.02 0.00 95 1010.5
20171023115428 41 198 0.0 0.0 0.00 0.02 0.00 95 1010.5
20171023115326 41 196 0.0 0.0 0.00 0.02 0.00 94 1010.5
20171023115223 41 196 0.0 0.0 0.00 0.02 0.00 94 1010.6
20171023115121 41 196 0.0 0.0 0.00 0.02 0.00 94 1010.6
20171023115016 41 196 0.0 0.0 0.00 0.02 0.00 94 1010.6
20171023114927 41 196 0.0 0.0 0.00 0.02 0.00 94 1010.6
20171023114824 41 196 0.0 0.0 0.00 0.02 0.00 94 1010.6
20171023114723 41 196 0.0 0.0 0.00 0.02 0.00 94 1010.6
20171023114621 41 196 0.0 0.0 0.00 0.02 0.00 94 1010.7
20171023114514 41 194 0.0 2.0 0.00 0.02 0.00 94 1010.7
20171023114412 41 194 0.0 2.0 0.00 0.02 0.00 95 1010.7
20171023114315 41 194 0.0 3.0 0.00 0.02 0.00 95 1010.7
20171023114211 41 136 0.0 3.0 0.00 0.02 0.00 95 1010.7
20171023114108 41 152 0.0 3.0 0.00 0.02 0.00 95 1010.7
20171023114019 41 146 0.0 3.0 0.00 0.02 0.00 95 1010.7
20171023113813 41 132 0.0 3.0 0.00 0.02 0.00 95 1010.8
20171023113711 41 132 1.0 3.0 0.00 0.02 0.00 95 1010.8
20171023113616 41 119 1.0 3.0 0.00 0.02 0.00 95 1010.9
20171023113506 41 118 1.0 3.0 0.00 0.02 0.00 95 1010.9
20171023113427 41 121 1.0 3.0 0.00 0.02 0.00 95 1010.9
20171023113325 41 132 0.0 2.0 0.00 0.02 0.00 95 1010.9
20171023113225 41 149 0.0 0.0 0.00 0.02 0.00 95 1011.0
20171023113123 41 146 0.0 0.0 0.00 0.02 0.00 95 1011.0
20171023113015 41 145 0.0 0.0 0.00 0.02 0.00 95 1011.0
20171023112920 41 155 0.0 0.0 0.00 0.02 0.00 95 1011.0
20171023112817 41 164 0.0 0.0 0.00 0.02 0.00 95 1011.0
20171023112718 41 172 0.0 0.0 0.00 0.02 0.00 95 1011.0
20171023112616 41 172 0.0 0.0 0.00 0.02 0.00 95 1011.0
20171023112507 41 196 0.0 0.0 0.00 0.02 0.00 95 1011.0
20171023112427 41 196 0.0 0.0 0.00 0.02 0.00 95 1011.0
20171023112310 41 217 0.0 0.0 0.00 0.02 0.00 95 1011.0
20171023112207 41 217 0.0 0.0 0.00 0.02 0.00 95 1011.0
20171023112123 41 217 0.0 0.0 0.00 0.02 0.00 95 1011.0
20171023112017 41 217 0.0 0.0 0.00 0.02 0.00 95 1010.9
20171023111913 41 217 0.0 0.0 0.00 0.02 0.00 95 1011.0
20171023111812 41 217 0.0 0.0 0.00 0.02 0.00 95 1011.0
20171023111710 41 225 0.0 0.0 0.00 0.02 0.00 95 1011.0
20171023111612 41 225 0.0 0.0 0.00 0.02 0.00 95 1011.0
20171023111525 41 225 0.0 0.0 0.00 0.02 0.00 95 1011.0
20171023111419 41 146 0.0 0.0 0.00 0.02 0.00 94 1011.0
20171023111318 41 129 0.0 0.0 0.00 0.02 0.00 95 1011.0
20171023111206 41 129 0.0 0.0 0.00 0.02 0.00 95 1011.2
20171023111127 41 129 0.0 0.0 0.00 0.02 0.00 95 1011.2
20171023111021 41 129 0.0 0.0 0.00 0.02 0.00 95 1011.1
20171023110916 41 129 0.0 0.0 0.00 0.02 0.00 95 1011.2
20171023110818 41 129 0.0 0.0 0.00 0.02 0.00 95 1011.2
20171023110716 41 129 0.0 0.0 0.00 0.02 0.00 95 1011.2
20171023110612 41 129 0.0 0.0 0.00 0.02 0.00 95 1011.2
20171023110524 41 129 0.0 0.0 0.00 0.02 0.00 95 1011.2
20171023110424 41 132 0.0 0.0 0.00 0.02 0.00 95 1011.2
20171023110321 41 128 0.0 0.0 0.00 0.02 0.00 95 1011.2
20171023110216 41 104 0.0 2.0 0.00 0.02 0.00 95 1011.2
20171023110117 41 128 0.0 2.0 0.00 0.02 0.00 95 1011.2
20171023110010 41 135 0.0 3.0 0.00 0.02 0.00 95 1011.3
20171023105910 41 130 0.0 4.0 0.00 0.02 0.00 95 1011.3
20171023105725 41 121 0.0 4.0 0.00 0.08 0.00 95 1011.3
20171023105620 41 141 0.0 4.0 0.00 0.08 0.00 95 1011.3
20171023105514 41 141 0.0 4.0 0.00 0.08 0.00 95 1011.2
20171023105416 41 144 1.0 4.0 0.00 0.08 0.00 95 1011.2
20171023105315 41 111 1.0 4.0 0.00 0.08 0.00 95 1011.2
20171023105212 41 120 2.0 4.0 0.00 0.08 0.00 95 1011.3
20171023105123 41 122 2.0 4.0 0.00 0.08 0.00 95 1011.3
20171023105017 41 148 1.0 3.0 0.00 0.08 0.00 95 1011.3
20171023104916 41 130 0.0 3.0 0.00 0.08 0.00 95 1011.3
20171023104812 41 131 0.0 1.0 0.00 0.08 0.00 95 1011.4
20171023104712 41 103 0.0 1.0 0.00 0.08 0.00 95 1011.4
20171023104608 41 104 0.0 1.0 0.00 0.08 0.00 95 1011.4
20171023104519 41 103 0.0 1.0 0.00 0.08 0.00 95 1011.4
20171023104418 41 115 0.0 1.0 0.00 0.08 0.00 95 1011.5
20171023104315 41 139 0.0 1.0 0.00 0.08 0.00 95 1011.5
20171023104209 41 135 0.0 0.0 0.00 0.08 0.00 95 1011.5
20171023104107 41 204 0.0 0.0 0.00 0.08 0.00 95 1011.5
20171023104026 41 204 0.0 0.0 0.00 0.08 0.00 95 1011.5
20171023103923 41 204 0.0 0.0 0.00 0.08 0.00 95 1011.5
20171023103822 41 204 0.0 0.0 0.00 0.08 0.00 95 1011.5
20171023103707 41 204 0.0 0.0 0.00 0.08 0.00 95 1011.6
20171023103624 41 204 0.0 0.0 0.00 0.08 0.00 95 1011.6
20171023103518 41 204 0.0 0.0 0.00 0.08 0.00 95 1011.6
20171023103415 41 203 0.0 0.0 0.00 0.08 0.00 95 1011.6
20171023103318 41 203 0.0 0.0 0.00 0.08 0.00 94 1011.6
20171023103210 42 203 0.0 0.0 0.00 0.08 0.00 94 1011.6
20171023103127 42 203 0.0 0.0 0.00 0.08 0.00 94 1011.6
20171023102911 42 142 0.0 0.0 0.00 0.08 0.00 94 1011.6
20171023102810 42 140 0.0 0.0 0.00 0.08 0.00 94 1011.7
20171023102626 42 140 0.0 3.0 0.00 0.08 0.00 94 1011.7
20171023102523 42 140 0.0 6.0 0.00 0.08 0.00 94 1011.7
20171023102422 42 140 0.0 6.0 0.00 0.08 0.00 94 1011.7
20171023102321 42 140 0.0 6.0 0.00 0.08 0.00 94 1011.7
20171023102219 42 140 0.0 5.0 0.00 0.08 0.00 95 1011.7
20171023102118 42 140 0.0 7.0 0.00 0.08 0.00 95 1011.6
20171023102010 42 140 1.0 7.0 0.00 0.08 0.00 95 1011.7
20171023101927 42 123 2.0 7.0 0.00 0.08 0.00 95 1011.7
20171023101807 42 140 3.0 7.0 0.00 0.08 0.00 95 1011.7
20171023101727 42 130 3.0 7.0 0.00 0.08 0.00 95 1011.7
20171023101624 42 134 4.0 7.0 0.00 0.08 0.00 95 1011.8
20171023101518 42 142 4.0 9.0 0.00 0.08 0.00 95 1011.7
20171023101413 42 146 4.0 9.0 0.00 0.08 0.00 95 1011.8
20171023101307 42 153 5.0 9.0 0.00 0.08 0.00 95 1011.8
20171023101227 42 146 5.0 10.0 0.00 0.08 0.00 95 1011.8
20171023101123 42 150 6.0 11.0 0.00 0.08 0.00 95 1011.8
20171023101017 42 151 6.0 10.0 0.00 0.08 0.00 95 1011.8
20171023100917 42 149 6.0 11.0 0.00 0.08 0.00 95 1011.9
20171023100717 42 153 7.0 11.0 0.00 0.08 0.00 95 1011.8
20171023100526 42 139 7.0 11.0 0.00 0.08 0.00 95 1011.9
20171023100409 42 146 8.0 11.0 0.00 0.08 0.00 96 1012.0
20171023100325 42 131 8.0 11.0 0.00 0.08 0.00 96 1012.0
20171023100223 42 138 8.0 11.0 0.00 0.08 0.00 96 1012.0
20171023100122 42 125 7.0 10.0 0.00 0.08 0.00 96 1012.1
20171023100012 42 144 7.0 9.0 0.00 0.08 0.00 96 1012.2
20171023095913 42 113 6.0 9.0 0.00 0.08 0.00 95 1012.2
20171023095813 42 126 6.0 9.0 0.00 0.10 0.00 95 1012.2
20171023095715 42 142 5.0 8.0 0.00 0.10 0.00 95 1012.3
20171023095612 41 113 4.0 7.0 0.00 0.10 0.00 95 1012.3
20171023095525 41 121 3.0 7.0 0.00 0.10 0.00 94 1012.3
20171023095425 41 140 3.0 5.0 0.00 0.10 0.00 94 1012.3
20171023095321 41 138 2.0 5.0 0.00 0.10 0.00 94 1012.4
20171023095221 42 107 3.0 6.0 0.00 0.10 0.00 94 1012.4
20171023095121 42 134 3.0 7.0 0.00 0.10 0.00 94 1012.4
20171023095018 42 129 3.0 7.0 0.00 0.10 0.00 94 1012.5
20171023094917 42 105 3.0 7.0 0.00 0.10 0.00 94 1012.5
20171023094816 42 83 2.0 7.0 0.00 0.10 0.00 94 1012.6
20171023094715 42 115 2.0 7.0 0.00 0.10 0.00 94 1012.6
20171023094615 42 113 4.0 7.0 0.00 0.10 0.00 94 1012.6
20171023094510 42 140 4.0 7.0 0.00 0.10 0.00 95 1012.7
20171023094410 42 116 4.0 7.0 0.00 0.10 0.00 95 1012.7
20171023094308 42 134 4.0 7.0 0.00 0.10 0.00 95 1012.6
20171023094207 42 127 4.0 7.0 0.00 0.10 0.00 95 1012.7
20171023094127 42 107 4.0 7.0 0.00 0.10 0.00 95 1012.7
20171023094020 42 145 4.0 6.0 0.00 0.10 0.00 95 1012.7
20171023093920 42 123 3.0 5.0 0.00 0.10 0.00 95 1012.7
20171023093819 42 111 3.0 5.0 0.00 0.10 0.00 95 1012.7
20171023093724 42 132 3.0 5.0 0.00 0.10 0.00 95 1012.7
20171023093625 42 136 3.0 5.0 0.00 0.10 0.00 95 1012.7
20171023093517 42 130 3.0 5.0 0.00 0.10 0.00 95 1012.8
20171023093415 42 129 3.0 5.0 0.00 0.10 0.00 95 1012.8
20171023093315 42 126 3.0 5.0 0.00 0.10 0.00 95 1012.8
20171023093215 41 144 3.0 5.0 0.00 0.10 0.00 95 1012.9
20171023093113 41 121 2.0 4.0 0.00 0.10 0.00 95 1012.9
20171023093012 41 104 2.0 5.0 0.00 0.10 0.00 95 1013.0
20171023092911 41 108 2.0 3.0 0.00 0.10 0.00 95 1013.0
20171023092808 42 130 2.0 3.0 0.00 0.10 0.00 95 1013.1
20171023092729 42 146 2.0 2.0 0.00 0.10 0.00 95 1013.1
20171023092623 42 103 2.0 2.0 0.00 0.10 0.00 95 1013.1
20171023092515 42 102 1.0 2.0 0.00 0.10 0.00 95 1013.2
20171023092413 42 110 0.0 2.0 0.00 0.10 0.00 95 1013.2
20171023092317 42 107 1.0 3.0 0.00 0.10 0.00 95 1013.2
20171023092212 42 125 1.0 3.0 0.00 0.10 0.00 95 1013.2
20171023092109 42 136 1.0 3.0 0.00 0.10 0.00 95 1013.2
20171023092025 42 142 1.0 3.0 0.00 0.10 0.00 95 1013.2
20171023091925 42 143 1.0 5.0 0.00 0.10 0.00 95 1013.2
20171023091825 42 140 1.0 5.0 0.00 0.10 0.00 95 1013.2
20171023091721 42 140 1.0 5.0 0.00 0.10 0.00 95 1013.2
20171023091624 42 151 2.0 5.0 0.00 0.10 0.00 95 1013.1
20171023091514 42 138 2.0 5.0 0.00 0.10 0.00 95 1013.1
20171023091411 42 138 3.0 5.0 0.00 0.10 0.00 95 1013.1
20171023091307 42 103 3.0 6.0 0.00 0.10 0.00 95 1013.1
20171023091225 42 141 3.0 7.0 0.00 0.10 0.00 95 1013.1
20171023091115 42 132 3.0 7.0 0.00 0.10 0.00 95 1013.1
20171023091009 42 140 3.0 7.0 0.00 0.10 0.00 95 1013.0
20171023090907 42 151 3.0 7.0 0.00 0.10 0.00 95 1013.0
20171023090824 42 141 4.0 8.0 0.00 0.10 0.00 95 1013.0
20171023090721 42 151 4.0 8.0 0.00 0.10 0.00 96 1013.0
20171023090619 42 144 4.0 8.0 0.00 0.10 0.00 96 1012.9
20171023090513 42 147 5.0 8.0 0.00 0.10 0.00 96 1012.9
20171023090411 42 124 5.0 8.0 0.00 0.10 0.00 96 1012.9
20171023090308 42 115 5.0 8.0 0.00 0.10 0.00 96 1012.9
20171023090210 42 134 5.0 8.0 0.00 0.10 0.00 96 1012.9
20171023090021 42 132 5.0 8.0 0.00 0.10 0.00 96 1012.9
20171023085927 42 122 5.0 8.0 0.00 0.10 0.00 96 1012.9
20171023085825 42 136 4.0 8.0 0.00 0.10 0.00 96 1013.0
20171023085713 42 111 3.0 7.0 0.00 0.15 0.00 95 1013.1
20171023085612 42 126 3.0 7.0 0.00 0.15 0.00 95 1013.0
20171023085526 42 115 4.0 7.0 0.00 0.15 0.00 95 1013.0
20171023085419 42 133 4.0 7.0 0.00 0.15 0.00 95 1013.1
20171023085317 42 130 4.0 7.0 0.00 0.15 0.00 95 1013.1
20171023085216 42 128 4.0 6.0 0.00 0.15 0.00 95 1013.1
20171023085113 42 145 4.0 5.0 0.00 0.15 0.00 95 1013.1
20171023085024 42 136 3.0 5.0 0.00 0.15 0.00 95 1013.1
20171023084920 42 132 3.0 7.0 0.00 0.15 0.00 95 1013.1
20171023084819 42 142 3.0 7.0 0.00 0.15 0.00 96 1013.1
20171023084722 42 165 4.0 8.0 0.00 0.15 0.00 96 1013.1
20171023084619 42 155 4.0 9.0 0.00 0.15 0.00 96 1013.1
20171023084510 42 146 4.0 9.0 0.00 0.15 0.00 96 1013.2
20171023084406 42 143 4.0 9.0 0.00 0.15 0.00 96 1013.2
20171023084325 42 144 4.0 9.0 0.00 0.15 0.00 96 1013.2
20171023084224 42 136 5.0 9.0 0.00 0.15 0.00 96 1013.2
20171023084123 42 141 5.0 9.0 0.00 0.15 0.00 96 1013.2
20171023084018 42 135 6.0 9.0 0.00 0.15 0.00 96 1013.2
20171023083915 42 135 6.0 9.0 0.00 0.15 0.00 96 1013.3
20171023083814 42 107 6.0 9.0 0.00 0.15 0.00 96 1013.3
20171023083607 42 144 5.0 8.0 0.00 0.15 0.00 96 1013.4
20171023083523 42 130 5.0 8.0 0.00 0.15 0.00 96 1013.4
20171023083419 42 137 5.0 8.0 0.00 0.15 0.00 96 1013.3
20171023083321 42 144 3.0 8.0 0.00 0.15 0.00 96 1013.4
20171023083221 42 125 1.0 8.0 0.00 0.15 0.00 95 1013.4
20171023083120 41 103 0.0 0.0 0.00 0.15 0.00 95 1013.4
20171023083009 41 103 0.0 0.0 0.00 0.15 0.00 95 1013.4
20171023082927 41 103 0.0 0.0 0.00 0.15 0.00 95 1013.4
20171023082825 41 103 0.0 0.0 0.00 0.15 0.00 95 1013.5
20171023082719 41 103 0.0 0.0 0.00 0.15 0.00 95 1013.6
20171023082623 41 103 0.0 0.0 0.00 0.15 0.00 95 1013.6
20171023082515 41 103 0.0 0.0 0.00 0.15 0.00 95 1013.6
20171023082415 41 103 0.0 0.0 0.00 0.15 0.00 95 1013.6
20171023082314 41 103 0.0 0.0 0.00 0.15 0.00 95 1013.7
20171023082214 41 103 0.0 0.0 0.00 0.15 0.00 95 1013.7
20171023082110 41 103 0.0 0.0 0.00 0.15 0.00 95 1013.8
20171023082025 41 103 0.0 0.0 0.00 0.15 0.00 95 1013.8
20171023081906 41 103 0.0 0.0 0.00 0.15 0.00 95 1013.8
20171023081825 42 103 0.0 0.0 0.00 0.15 0.00 95 1013.8
20171023081725 42 103 0.0 0.0 0.00 0.15 0.00 94 1013.8
20171023081623 42 103 0.0 0.0 0.00 0.15 0.00 94 1013.8
20171023081517 42 103 0.0 0.0 0.00 0.15 0.00 95 1013.8
20171023081416 42 103 0.0 0.0 0.00 0.15 0.00 95 1013.8
20171023081312 42 103 0.0 0.0 0.00 0.15 0.00 95 1013.8
20171023081210 42 103 0.0 0.0 0.00 0.15 0.00 95 1013.8
20171023081128 42 103 0.0 0.0 0.00 0.15 0.00 95 1013.8
20171023080920 42 103 0.0 0.0 0.00 0.15 0.00 95 1013.8
20171023080814 42 103 0.0 0.0 0.00 0.15 0.00 95 1013.8
20171023080708 42 103 0.0 0.0 0.00 0.15 0.00 95 1013.8
20171023080627 42 103 0.0 0.0 0.00 0.15 0.00 95 1013.8
20171023080421 42 103 0.0 0.0 0.00 0.15 0.00 95 1013.8
20171023080317 42 103 0.0 0.0 0.00 0.15 0.00 95 1013.8
20171023080217 42 103 0.0 0.0 0.00 0.15 0.00 95 1013.8
20171023080111 42 103 0.0 0.0 0.00 0.15 0.00 95 1013.8
20171023080026 42 103 0.0 0.0 0.00 0.15 0.00 95 1013.8
20171023075923 42 103 0.0 0.0 0.00 0.15 0.00 95 1013.8
20171023075826 42 103 0.0 0.0 0.00 0.15 0.00 95 1013.8
20171023075726 42 103 0.0 0.0 0.00 0.17 0.00 95 1013.8
20171023075625 42 103 0.0 0.0 0.00 0.17 0.00 95 1013.8
20171023075517 42 103 0.0 0.0 0.00 0.17 0.00 95 1013.8
20171023075313 42 103 0.0 0.0 0.00 0.17 0.00 95 1013.9
20171023075211 42 103 0.0 0.0 0.00 0.17 0.00 95 1013.9
20171023075113 42 103 0.0 0.0 0.00 0.17 0.00 95 1013.9
20171023075027 42 103 0.0 0.0 0.00 0.17 0.00 95 1013.9
20171023074830 42 96 0.0 0.0 0.00 0.17 0.00 95 1014.0
20171023074723 42 94 0.0 0.0 0.00 0.17 0.00 95 1014.0
20171023074620 42 95 0.0 0.0 0.00 0.17 0.00 95 1014.1
20171023074513 42 94 0.0 0.0 0.00 0.17 0.00 95 1014.0
20171023074417 42 94 0.0 0.0 0.00 0.17 0.00 95 1014.0
20171023074316 42 94 0.0 0.0 0.00 0.17 0.00 95 1014.0
20171023074215 42 94 0.0 0.0 0.00 0.17 0.00 95 1014.0
20171023074108 42 95 0.0 0.0 0.00 0.17 0.00 95 1014.0
20171023074023 42 95 0.0 0.0 0.00 0.17 0.00 95 1014.0
20171023073922 42 95 0.0 0.0 0.00 0.17 0.00 95 1014.0
20171023073821 42 95 0.0 0.0 0.00 0.17 0.00 94 1014.0
20171023073721 42 95 0.0 0.0 0.00 0.17 0.00 94 1014.1
20171023073621 42 94 0.0 0.0 0.00 0.17 0.00 94 1014.1
20171023073514 42 94 0.0 0.0 0.00 0.17 0.00 94 1014.2
20171023073414 42 94 0.0 0.0 0.00 0.17 0.00 94 1014.2
20171023073310 42 94 0.0 0.0 0.00 0.17 0.00 94 1014.2
20171023073208 42 94 0.0 0.0 0.00 0.17 0.00 94 1014.2
20171023073109 42 94 0.0 0.0 0.00 0.17 0.00 94 1014.3
20171023073026 42 94 0.0 0.0 0.00 0.17 0.00 94 1014.3
20171023072924 42 94 0.0 0.0 0.00 0.17 0.00 94 1014.2
20171023072823 43 94 0.0 0.0 0.00 0.17 0.00 95 1014.2
20171023072720 43 94 0.0 0.0 0.00 0.17 0.00 95 1014.2
20171023072615 43 94 0.0 0.0 0.00 0.17 0.00 95 1014.2
20171023072509 43 94 0.0 0.0 0.00 0.17 0.00 95 1014.2
20171023072407 43 94 0.0 0.0 0.00 0.17 0.00 95 1014.1
20171023072329 43 94 0.0 0.0 0.00 0.17 0.00 95 1014.1
20171023071922 42 132 0.0 1.0 0.00 0.17 0.00 94 1014.1
20171023071818 42 132 0.0 2.0 0.00 0.17 0.00 94 1014.2
20171023071714 42 132 0.0 3.0 0.00 0.17 0.00 94 1014.1
20171023071614 42 154 0.0 3.0 0.00 0.17 0.00 94 1014.2
20171023071511 42 154 0.0 4.0 0.00 0.17 0.00 94 1014.2
20171023071411 42 138 0.0 5.0 0.00 0.17 0.00 94 1014.2
20171023071308 43 147 0.0 5.0 0.00 0.17 0.00 94 1014.1
20171023071227 43 137 0.0 5.0 0.00 0.17 0.00 95 1014.1
20171023071120 43 126 1.0 5.0 0.00 0.17 0.00 95 1014.2
20171023071009 43 142 2.0 5.0 0.00 0.17 0.00 95 1014.2
20171023070810 43 129 2.0 6.0 0.00 0.17 0.00 95 1014.0
20171023070707 43 112 2.0 6.0 0.00 0.17 0.00 95 1014.0
20171023070628 43 113 2.0 7.0 0.00 0.17 0.00 94 1014.0
20171023070512 43 107 2.0 7.0 0.00 0.17 0.00 94 1014.0
20171023070422 43 115 2.0 7.0 0.00 0.17 0.00 94 1014.0
20171023070321 43 71 2.0 7.0 0.00 0.17 0.00 94 1014.0
20171023070217 43 136 2.0 7.0 0.00 0.17 0.00 94 1014.0
20171023070115 43 138 3.0 7.0 0.00 0.17 0.00 95 1014.0
20171023070012 43 121 3.0 7.0 0.00 0.17 0.00 95 1014.0
20171023065806 43 123 4.0 7.0 0.00 0.19 0.00 95 1014.0
20171023065727 43 117 4.0 7.0 0.00 0.19 0.00 95 1014.0
20171023065624 43 128 4.0 5.0 0.00 0.19 0.00 95 1014.0
20171023065414 43 119 3.0 7.0 0.00 0.19 0.00 94 1014.1
20171023065317 43 128 2.0 7.0 0.00 0.19 0.00 94 1014.1
20171023065215 43 111 2.0 7.0 0.00 0.19 0.00 94 1014.2
20171023065113 43 130 2.0 7.0 0.00 0.19 0.00 94 1014.2
20171023065028 43 119 2.0 7.0 0.00 0.19 0.00 94 1014.2
20171023064826 43 98 2.0 7.0 0.00 0.19 0.00 94 1014.3
20171023064726 43 146 3.0 7.0 0.00 0.19 0.00 94 1014.3
20171023064622 43 122 3.0 7.0 0.00 0.19 0.00 94 1014.3
20171023064515 43 141 3.0 8.0 0.00 0.19 0.00 94 1014.3
20171023064415 43 86 3.0 8.0 0.00 0.19 0.00 94 1014.3
20171023064312 43 132 3.0 8.0 0.00 0.19 0.00 94 1014.2
20171023064219 43 126 3.0 8.0 0.00 0.19 0.00 94 1014.2
20171023064027 43 136 4.0 8.0 0.00 0.19 0.00 94 1014.3
20171023063821 43 118 3.0 8.0 0.00 0.19 0.00 94 1014.4
20171023063718 43 140 3.0 8.0 0.00 0.19 0.00 94 1014.4
20171023063617 43 123 2.0 5.0 0.00 0.19 0.00 94 1014.4
20171023063514 43 131 2.0 5.0 0.00 0.19 0.00 94 1014.5
20171023063411 43 132 2.0 5.0 0.00 0.19 0.00 94 1014.5
20171023063308 43 153 2.0 5.0 0.00 0.19 0.00 94 1014.5
20171023063210 43 118 2.0 5.0 0.00 0.19 0.00 94 1014.5
20171023063106 43 116 2.0 5.0 0.00 0.19 0.00 94 1014.4
20171023063019 43 126 2.0 5.0 0.00 0.19 0.00 94 1014.4
20171023062914 43 137 2.0 5.0 0.00 0.19 0.00 93 1014.3
20171023062812 43 143 1.0 3.0 0.00 0.19 0.00 93 1014.3
20171023062710 43 125 0.0 3.0 0.00 0.19 0.00 93 1014.3
20171023062608 44 107 0.0 3.0 0.00 0.19 0.00 93 1014.4
20171023062523 44 116 0.0 3.0 0.00 0.19 0.00 93 1014.4
20171023062425 44 105 0.0 3.0 0.00 0.19 0.00 93 1014.4
20171023062319 44 144 0.0 3.0 0.00 0.19 0.00 93 1014.4
20171023062216 44 146 1.0 3.0 0.00 0.19 0.00 93 1014.4
20171023062116 44 94 1.0 3.0 0.00 0.19 0.00 93 1014.5
20171023062006 44 103 1.0 3.0 0.00 0.19 0.00 93 1014.5
20171023061926 44 122 1.0 3.0 0.00 0.19 0.00 93 1014.5
20171023061810 44 115 1.0 3.0 0.00 0.19 0.00 93 1014.5
20171023061707 44 105 1.0 3.0 0.00 0.19 0.00 93 1014.5
20171023061624 44 119 1.0 3.0 0.00 0.19 0.00 93 1014.5
20171023061514 44 130 1.0 3.0 0.00 0.19 0.00 93 1014.6
20171023061414 44 125 1.0 3.0 0.00 0.19 0.00 93 1014.6
20171023061314 44 190 1.0 3.0 0.00 0.19 0.00 93 1014.6
20171023061210 44 121 2.0 3.0 0.00 0.19 0.00 93 1014.5
20171023061111 44 107 2.0 3.0 0.00 0.19 0.00 93 1014.5
20171023061016 44 110 2.0 3.0 0.00 0.19 0.00 93 1014.5
20171023060929 44 103 2.0 3.0 0.00 0.19 0.00 93 1014.5
20171023060827 44 129 1.0 3.0 0.00 0.19 0.00 93 1014.6
20171023060726 44 117 1.0 5.0 0.00 0.19 0.00 93 1014.6
20171023060618 44 136 1.0 5.0 0.00 0.19 0.00 93 1014.6
20171023060526 44 116 2.0 5.0 0.00 0.19 0.00 93 1014.6
20171023060430 44 109 2.0 5.0 0.00 0.19 0.00 93 1014.6
20171023060322 44 121 2.0 5.0 0.00 0.19 0.00 93 1014.6
20171023060220 44 131 2.0 5.0 0.00 0.19 0.00 93 1014.6
20171023060114 44 136 2.0 5.0 0.00 0.19 0.00 93 1014.6
20171023060007 44 98 2.0 5.0 0.00 0.19 0.00 93 1014.7
20171023055924 44 148 2.0 5.0 0.00 0.19 0.00 93 1014.7
20171023055818 44 114 2.0 5.0 0.00 0.19 0.00 93 1014.7
20171023055716 44 130 2.0 5.0 0.00 0.26 0.00 93 1014.7
20171023055617 44 155 2.0 5.0 0.00 0.26 0.00 93 1014.7
20171023055516 44 105 2.0 5.0 0.00 0.26 0.00 93 1014.7
20171023055414 44 152 1.0 5.0 0.00 0.26 0.00 93 1014.7
20171023055313 44 128 1.0 5.0 0.00 0.26 0.00 93 1014.7
20171023055213 44 127 1.0 5.0 0.00 0.26 0.00 93 1014.8
20171023055108 44 150 2.0 5.0 0.00 0.26 0.00 93 1014.8
20171023055008 44 123 2.0 5.0 0.00 0.26 0.00 93 1014.8
20171023054924 45 112 2.0 5.0 0.00 0.26 0.00 93 1014.8
20171023054821 45 132 2.0 5.0 0.00 0.26 0.00 93 1014.9
20171023054725 45 137 2.0 5.0 0.00 0.26 0.00 93 1014.9
20171023054619 45 135 2.0 5.0 0.00 0.26 0.00 93 1014.9
20171023054513 45 144 2.0 5.0 0.00 0.26 0.00 93 1015.0
20171023054309 44 130 2.0 5.0 0.00 0.26 0.00 93 1015.0
20171023054209 44 136 2.0 5.0 0.00 0.26 0.00 93 1015.0
20171023054111 44 149 2.0 5.0 0.00 0.26 0.00 93 1015.0
20171023054017 44 144 2.0 5.0 0.00 0.26 0.00 93 1015.0
20171023053915 44 118 2.0 3.0 0.00 0.26 0.00 93 1014.9
20171023053810 44 129 1.0 4.0 0.00 0.26 0.00 93 1014.9
20171023053727 44 133 1.0 4.0 0.00 0.26 0.00 93 1014.9
20171023053626 44 121 2.0 4.0 0.00 0.26 0.00 93 1014.9
20171023053516 44 132 1.0 4.0 0.00 0.26 0.00 93 1015.0
20171023053320 44 119 1.0 4.0 0.00 0.26 0.00 92 1015.0
20171023053216 44 136 2.0 4.0 0.00 0.26 0.00 92 1015.0
20171023053118 45 115 2.0 4.0 0.00 0.26 0.00 92 1015.0
20171023052926 45 93 2.0 4.0 0.00 0.26 0.00 92 1015.0
20171023052827 45 120 2.0 3.0 0.00 0.26 0.00 92 1015.0
20171023052707 45 147 1.0 3.0 0.00 0.26 0.00 92 1015.0
20171023052627 45 132 1.0 4.0 0.00 0.26 0.00 92 1015.0
20171023052520 45 117 1.0 6.0 0.00 0.26 0.00 92 1014.9
20171023052420 45 112 1.0 6.0 0.00 0.26 0.00 92 1014.9
20171023052317 45 118 2.0 6.0 0.00 0.26 0.00 92 1014.9
20171023052216 45 143 2.0 6.0 0.00 0.26 0.00 92 1014.8
20171023052114 45 103 2.0 6.0 0.00 0.26 0.00 92 1014.9
20171023052008 45 129 2.0 6.0 0.00 0.26 0.00 91 1015.0
20171023051927 45 101 3.0 6.0 0.00 0.26 0.00 91 1015.0
20171023051824 45 134 3.0 6.0 0.00 0.26 0.00 91 1015.0
20171023051720 45 134 3.0 6.0 0.00 0.26 0.00 91 1015.0
20171023051609 45 136 4.0 5.0 0.00 0.26 0.00 91 1015.1
20171023051524 45 134 4.0 5.0 0.00 0.26 0.00 91 1015.1
20171023051413 46 130 4.0 5.0 0.00 0.26 0.00 91 1015.1
20171023051311 46 146 3.0 5.0 0.00 0.26 0.00 91 1015.1
20171023051214 46 130 3.0 5.0 0.00 0.26 0.00 91 1015.1
20171023051110 46 140 3.0 5.0 0.00 0.26 0.00 91 1015.1
20171023051014 46 151 2.0 5.0 0.00 0.26 0.00 91 1015.1
20171023050827 46 159 2.0 6.0 0.00 0.26 0.00 91 1015.1
20171023050724 46 126 2.0 6.0 0.00 0.26 0.00 91 1015.1
20171023050622 46 136 2.0 6.0 0.00 0.26 0.00 91 1015.1
20171023050517 46 136 2.0 6.0 0.00 0.26 0.00 91 1015.2
20171023050415 46 119 2.0 6.0 0.00 0.26 0.00 92 1015.2
20171023050314 46 130 3.0 6.0 0.00 0.26 0.00 92 1015.2
20171023050213 46 146 4.0 6.0 0.00 0.26 0.00 92 1015.1
20171023050039 46 138 4.0 6.0 0.00 0.26 0.00 92 1015.1
20171023045927 46 136 4.0 5.0 0.00 0.26 0.00 92 1015.1
20171023045810 46 111 3.0 5.0 0.00 0.31 0.26 92 1015.1
20171023045726 46 118 2.0 4.0 0.00 0.31 0.26 92 1015.1
20171023045618 46 161 2.0 4.0 0.00 0.31 0.26 92 1015.1
20171023045528 45 154 2.0 4.0 0.00 0.31 0.26 92 1015.1
20171023045425 45 135 2.0 4.0 0.00 0.31 0.26 92 1015.2
20171023045323 45 119 2.0 4.0 0.00 0.31 0.26 92 1015.2
20171023045221 45 123 2.0 4.0 0.00 0.31 0.26 92 1015.2
20171023045116 45 115 1.0 3.0 0.00 0.31 0.26 92 1015.3
20171023045011 45 132 0.0 3.0 0.00 0.31 0.26 92 1015.3
20171023044909 45 130 0.0 4.0 0.00 0.31 0.26 91 1015.3
20171023044807 45 119 0.0 4.0 0.00 0.31 0.26 91 1015.4
20171023044623 45 140 0.0 4.0 0.00 0.31 0.26 91 1015.3
20171023044508 45 129 0.0 4.0 0.00 0.31 0.26 91 1015.3
20171023044427 45 127 1.0 4.0 0.00 0.31 0.26 91 1015.3
20171023044309 45 121 1.0 4.0 0.00 0.31 0.26 91 1015.4
20171023044228 46 123 2.0 4.0 0.00 0.31 0.26 91 1015.4
20171023044126 45 132 1.0 4.0 0.00 0.31 0.26 91 1015.4
20171023044015 46 140 1.0 4.0 0.00 0.31 0.26 91 1015.4
20171023043912 46 120 2.0 4.0 0.00 0.31 0.26 91 1015.3
20171023043828 46 111 2.0 4.0 0.00 0.31 0.26 91 1015.3
20171023043727 46 121 2.0 4.0 0.00 0.31 0.26 91 1015.4
20171023043608 46 104 2.0 5.0 0.00 0.31 0.26 91 1015.4
20171023043523 46 106 2.0 5.0 0.00 0.31 0.26 91 1015.4
20171023043421 46 119 2.0 5.0 0.00 0.31 0.26 91 1015.4
20171023043318 46 115 2.0 5.0 0.00 0.31 0.26 91 1015.5
20171023043213 46 146 3.0 5.0 0.00 0.31 0.26 91 1015.5
20171023043128 46 148 3.0 5.0 0.00 0.31 0.26 91 1015.5
20171023043017 46 130 3.0 5.0 0.00 0.31 0.26 91 1015.5
20171023042919 46 144 3.0 5.0 0.00 0.31 0.26 91 1015.6
20171023042814 46 132 4.0 5.0 0.00 0.31 0.26 91 1015.6
20171023042714 46 112 4.0 5.0 0.00 0.31 0.26 91 1015.6
20171023042610 46 123 3.0 7.0 0.00 0.31 0.26 91 1015.6
20171023042514 46 129 3.0 7.0 0.00 0.31 0.26 91 1015.6
20171023042413 46 120 2.0 7.0 0.00 0.31 0.26 91 1015.6
20171023042310 46 138 3.0 6.0 0.00 0.31 0.26 91 1015.6
20171023042222 46 132 3.0 7.0 0.00 0.31 0.26 91 1015.6
20171023042122 46 122 4.0 7.0 0.00 0.31 0.26 91 1015.7
20171023042014 46 148 4.0 7.0 0.00 0.31 0.26 91 1015.6
20171023041912 46 137 4.0 8.0 0.00 0.31 0.26 92 1015.6
20171023041808 46 110 4.0 8.0 0.00 0.31 0.26 92 1015.6
20171023041727 46 139 4.0 8.0 0.00 0.31 0.26 91 1015.6
20171023041622 46 135 4.0 8.0 0.00 0.31 0.26 91 1015.6
20171023041513 46 111 4.0 8.0 0.00 0.31 0.26 91 1015.6
20171023041414 46 157 5.0 8.0 0.00 0.31 0.26 91 1015.7
20171023041308 46 121 5.0 8.0 0.00 0.31 0.26 91 1015.7
20171023041118 46 146 5.0 6.0 0.00 0.31 0.26 91 1015.7
20171023040922 46 153 6.0 6.0 0.00 0.31 0.26 91 1015.7
20171023040815 46 152 6.0 6.0 0.00 0.31 0.26 91 1015.7
20171023040718 46 161 6.0 6.0 0.00 0.31 0.26 91 1015.7
20171023040613 46 166 6.0 6.0 0.00 0.31 0.26 91 1015.8
20171023040527 46 163 6.0 6.0 0.00 0.31 0.26 91 1015.8
20171023040426 46 167 5.0 6.0 0.00 0.31 0.26 91 1015.8
20171023040325 46 169 5.0 6.0 0.00 0.31 0.26 92 1015.8
20171023040121 46 171 5.0 6.0 0.00 0.31 0.26 91 1015.8
20171023040018 46 167 5.0 6.0 0.00 0.31 0.26 91 1015.8
20171023035915 46 167 5.0 6.0 0.00 0.31 0.26 91 1015.8
20171023035724 46 159 6.0 6.0 0.00 0.76 0.26 91 1015.8
20171023035619 46 161 5.0 6.0 0.00 0.76 0.26 91 1015.8
20171023035511 46 161 5.0 6.0 0.00 0.76 0.26 91 1015.8
20171023035409 46 173 5.0 6.0 0.00 0.76 0.26 91 1015.9
20171023035309 46 164 5.0 6.0 0.00 0.76 0.26 91 1015.9
20171023035227 46 173 5.0 6.0 0.00 0.76 0.26 91 1015.9
20171023035123 46 168 5.0 6.0 0.00 0.76 0.26 91 1015.8
20171023035025 46 175 5.0 6.0 0.00 0.76 0.26 91 1015.9
20171023034810 46 174 5.0 6.0 0.00 0.76 0.26 91 1015.9
20171023034726 46 184 5.0 6.0 0.00 0.76 0.26 91 1015.9
20171023034621 46 173 5.0 6.0 0.00 0.76 0.26 91 1016.0
20171023034515 46 176 5.0 6.0 0.00 0.76 0.26 91 1016.0
20171023034412 46 176 5.0 6.0 0.00 0.76 0.26 91 1016.0
20171023034308 46 169 5.0 6.0 0.00 0.76 0.26 91 1016.0
20171023034122 46 164 6.0 6.0 0.00 0.76 0.26 91 1015.9
20171023034015 46 168 6.0 6.0 0.00 0.76 0.26 91 1016.0
20171023033912 46 165 6.0 6.0 0.00 0.76 0.26 91 1016.0
20171023033814 46 167 5.0 6.0 0.00 0.76 0.26 91 1016.1
20171023033713 46 165 5.0 6.0 0.00 0.76 0.26 91 1016.1
20171023033610 46 163 5.0 6.0 0.00 0.76 0.26 90 1016.0
20171023033520 46 164 5.0 6.0 0.00 0.76 0.26 90 1016.0
20171023033418 46 162 6.0 6.0 0.00 0.76 0.26 90 1016.1
20171023033316 46 160 6.0 6.0 0.00 0.76 0.26 90 1016.1
20171023033216 46 162 6.0 7.0 0.00 0.76 0.26 90 1016.1
20171023033127 46 159 6.0 7.0 0.00 0.76 0.26 90 1016.1
20171023033015 47 165 6.0 7.0 0.00 0.76 0.26 91 1016.1
20171023032912 47 169 6.0 7.0 0.00 0.76 0.26 91 1016.0
20171023032807 47 164 6.0 7.0 0.00 0.76 0.26 91 1016.0
20171023032725 47 161 6.0 8.0 0.00 0.76 0.26 91 1016.0
20171023032623 47 163 6.0 8.0 0.00 0.76 0.26 91 1016.0
20171023032509 47 152 6.0 8.0 0.00 0.76 0.26 91 1016.0
20171023032428 47 161 7.0 8.0 0.00 0.76 0.26 91 1016.0
20171023032308 47 163 7.0 8.0 0.00 0.76 0.26 91 1016.0
20171023032228 47 172 7.0 8.0 0.00 0.76 0.26 91 1016.0
20171023032125 47 160 7.0 8.0 0.00 0.76 0.26 91 1016.0
20171023032018 47 162 7.0 8.0 0.00 0.76 0.26 91 1016.1
20171023031907 47 165 7.0 8.0 0.00 0.76 0.26 91 1016.1
20171023031827 46 166 7.0 8.0 0.00 0.76 0.26 91 1016.1
20171023031722 46 167 7.0 8.0 0.00 0.76 0.26 91 1016.1
20171023031621 46 172 6.0 8.0 0.00 0.76 0.26 91 1016.1
20171023031513 46 156 6.0 7.0 0.00 0.76 0.26 91 1016.2
20171023031429 46 163 6.0 7.0 0.00 0.76 0.26 91 1016.2
20171023031224 46 167 5.0 6.0 0.00 0.76 0.26 91 1016.3
20171023031120 46 167 5.0 6.0 0.00 0.76 0.26 91 1016.3
20171023031008 46 183 5.0 6.0 0.00 0.76 0.26 90 1016.3
20171023030925 46 178 5.0 6.0 0.00 0.76 0.26 90 1016.3
20171023030823 46 176 5.0 6.0 0.00 0.76 0.26 90 1016.3
20171023030720 46 178 5.0 6.0 0.00 0.76 0.26 90 1016.3
20171023030637 47 178 5.0 6.0 0.00 0.76 0.26 90 1016.3
20171023030519 47 173 5.0 6.0 0.00 0.76 0.26 90 1016.4
20171023030414 47 181 5.0 6.0 0.00 0.76 0.26 90 1016.3
20171023030311 47 172 5.0 6.0 0.00 0.76 0.26 90 1016.4
20171023030208 47 189 6.0 7.0 0.00 0.76 0.26 90 1016.3
20171023030129 47 178 6.0 7.0 0.00 0.76 0.26 90 1016.3
20171023030017 47 171 6.0 7.0 0.00 0.76 0.26 90 1016.3
20171023025917 47 172 5.0 7.0 0.00 0.76 0.26 90 1016.3
20171023025810 47 172 5.0 7.0 0.00 0.77 0.26 90 1016.3
20171023025708 47 171 5.0 7.0 0.00 0.77 0.26 90 1016.3
20171023025628 47 190 5.0 7.0 0.00 0.77 0.26 90 1016.3
20171023025520 47 171 6.0 7.0 0.00 0.77 0.26 90 1016.3
20171023025420 47 173 6.0 7.0 0.00 0.77 0.26 90 1016.3
20171023025319 47 167 6.0 6.0 0.00 0.77 0.26 90 1016.4
20171023025113 47 169 6.0 6.0 0.00 0.77 0.26 90 1016.3
20171023025028 47 169 6.0 6.0 0.00 0.77 0.26 90 1016.3
20171023024922 47 169 5.0 6.0 0.00 0.77 0.26 90 1016.3
20171023024820 47 158 5.0 6.0 0.00 0.77 0.26 90 1016.2
20171023024721 47 164 5.0 6.0 0.00 0.77 0.26 90 1016.2
20171023024615 47 163 5.0 6.0 0.00 0.77 0.26 90 1016.2
20171023024528 47 170 5.0 6.0 0.00 0.77 0.26 90 1016.2
20171023024323 47 160 5.0 6.0 0.00 0.77 0.26 90 1016.3
20171023024220 47 167 5.0 6.0 0.00 0.77 0.26 90 1016.3
20171023024114 47 161 5.0 6.0 0.00 0.77 0.26 90 1016.3
20171023024008 47 160 5.0 6.0 0.00 0.77 0.26 90 1016.3
20171023023926 47 160 5.0 6.0 0.00 0.77 0.26 90 1016.3
20171023023722 47 156 4.0 5.0 0.00 0.77 0.26 89 1016.3
20171023023619 47 162 4.0 5.0 0.00 0.77 0.26 89 1016.2
20171023023510 47 146 4.0 5.0 0.00 0.77 0.26 89 1016.2
20171023023407 47 150 4.0 5.0 0.00 0.77 0.26 89 1016.2
20171023023322 47 147 4.0 5.0 0.00 0.77 0.26 89 1016.2
20171023023224 47 144 4.0 6.0 0.00 0.77 0.26 89 1016.2
20171023023124 47 136 4.0 6.0 0.00 0.77 0.26 89 1016.2
20171023023008 47 147 4.0 6.0 0.00 0.77 0.26 89 1016.2
20171023022929 47 131 4.0 6.0 0.00 0.77 0.26 89 1016.2
20171023022819 47 145 4.0 6.0 0.00 0.77 0.26 89 1016.2
20171023022714 47 142 4.0 6.0 0.00 0.77 0.26 89 1016.2
20171023022611 47 133 5.0 6.0 0.00 0.77 0.26 89 1016.2
20171023022517 47 148 5.0 6.0 0.00 0.77 0.26 89 1016.2
20171023022411 47 146 5.0 6.0 0.00 0.77 0.26 89 1016.2
20171023022329 47 155 5.0 6.0 0.00 0.77 0.26 89 1016.2
20171023022223 47 144 5.0 6.0 0.00 0.77 0.26 89 1016.2
20171023022114 47 163 5.0 6.0 0.00 0.77 0.26 89 1016.2
20171023022023 47 143 5.0 6.0 0.00 0.77 0.26 89 1016.2
20171023021919 47 151 5.0 6.0 0.00 0.77 0.26 89 1016.3
20171023021818 47 153 5.0 5.0 0.00 0.77 0.26 89 1016.3
20171023021718 47 150 4.0 5.0 0.00 0.77 0.26 88 1016.2
20171023021613 48 150 4.0 5.0 0.00 0.77 0.26 88 1016.2
20171023021425 48 148 4.0 5.0 0.00 0.77 0.26 88 1016.2
20171023021322 48 156 4.0 7.0 0.00 0.77 0.26 88 1016.2
20171023021217 48 142 4.0 7.0 0.00 0.77 0.26 89 1016.2
20171023021132 48 139 4.0 8.0 0.00 0.77 0.26 89 1016.2
20171023021016 48 147 4.0 8.0 0.00 0.77 0.26 89 1016.2
20171023020921 48 121 4.0 8.0 0.00 0.77 0.26 88 1016.2
20171023020810 48 144 4.0 8.0 0.00 0.77 0.26 88 1016.1
20171023020728 48 147 4.0 8.0 0.00 0.77 0.26 89 1016.1
20171023020622 48 135 4.0 8.0 0.00 0.77 0.26 89 1016.1
20171023020507 48 133 5.0 8.0 0.00 0.77 0.26 89 1016.1
20171023020426 48 140 5.0 8.0 0.00 0.77 0.26 89 1016.1
20171023020322 48 143 5.0 8.0 0.00 0.77 0.26 89 1016.1
20171023020224 48 128 5.0 8.0 0.00 0.77 0.26 89 1016.1
20171023020123 48 152 4.0 8.0 0.00 0.77 0.26 89 1016.1
20171023020015 48 119 5.0 8.0 0.00 0.77 0.26 89 1016.2
20171023015912 48 132 5.0 8.0 0.00 0.77 0.26 89 1016.2
20171023015831 48 124 5.0 8.0 0.00 0.77 0.26 89 1016.2
20171023015716 48 127 5.0 7.0 0.00 0.77 0.26 89 1016.3
20171023015633 48 130 5.0 6.0 0.00 0.77 0.26 89 1016.3
20171023015427 48 150 4.0 7.0 0.00 0.77 0.26 89 1016.3
20171023015315 48 149 4.0 7.0 0.00 0.77 0.26 89 1016.3
20171023015225 48 146 4.0 7.0 0.00 0.77 0.26 89 1016.3
20171023015118 48 146 4.0 7.0 0.00 0.77 0.26 89 1016.3
20171023015029 48 147 4.0 7.0 0.00 0.77 0.26 89 1016.3
20171023014926 48 146 4.0 7.0 0.00 0.77 0.26 89 1016.3
20171023014719 48 139 5.0 7.0 0.00 0.77 0.26 89 1016.4
20171023014619 48 146 5.0 5.0 0.00 0.77 0.26 89 1016.4
20171023014524 48 135 4.0 5.0 0.00 0.77 0.26 89 1016.4
20171023014412 48 151 4.0 5.0 0.00 0.77 0.26 89 1016.4
20171023014325 48 138 4.0 5.0 0.00 0.77 0.26 89 1016.4
20171023014234 48 151 4.0 5.0 0.00 0.77 0.26 89 1016.4
20171023014121 48 150 4.0 5.0 0.00 0.77 0.26 89 1016.4
20171023014020 48 148 3.0 5.0 0.00 0.77 0.26 89 1016.4
20171023013912 48 124 3.0 5.0 0.00 0.77 0.26 89 1016.4
20171023013833 48 153 3.0 5.0 0.00 0.77 0.26 88 1016.4
20171023013721 48 132 4.0 5.0 0.00 0.77 0.26 88 1016.4
20171023013615 48 144 4.0 5.0 0.00 0.77 0.26 88 1016.4
20171023013526 48 148 4.0 5.0 0.00 0.77 0.26 88 1016.4
20171023013420 48 135 4.0 8.0 0.00 0.77 0.26 88 1016.4
20171023013310 48 146 4.0 8.0 0.00 0.77 0.26 88 1016.4
20171023013227 48 163 4.0 8.0 0.00 0.77 0.26 88 1016.4
20171023013121 48 143 3.0 8.0 0.00 0.77 0.26 88 1016.4
20171023013011 48 155 3.0 8.0 0.00 0.77 0.26 88 1016.3
20171023012929 48 146 3.0 8.0 0.00 0.77 0.26 88 1016.3
20171023012819 48 126 4.0 8.0 0.00 0.77 0.26 88 1016.4
20171023012732 48 157 5.0 8.0 0.00 0.77 0.26 88 1016.3
20171023012620 48 131 5.0 8.0 0.00 0.77 0.26 88 1016.3
20171023012524 48 136 5.0 8.0 0.00 0.77 0.26 87 1016.3
20171023012411 49 123 6.0 8.0 0.00 0.77 0.26 87 1016.3
20171023012213 49 140 6.0 7.0 0.00 0.77 0.26 87 1016.4
20171023012128 49 141 5.0 7.0 0.00 0.77 0.26 88 1016.4
20171023012033 49 150 5.0 7.0 0.00 0.77 0.26 88 1016.4
20171023011915 49 138 4.0 7.0 0.00 0.77 0.26 87 1016.4
20171023011834 49 132 3.0 7.0 0.00 0.77 0.26 87 1016.4
20171023011723 49 111 3.0 6.0 0.00 0.77 0.26 87 1016.4
20171023011617 49 143 4.0 6.0 0.00 0.77 0.26 87 1016.4
20171023011525 49 123 5.0 6.0 0.00 0.77 0.26 87 1016.4
20171023011419 49 141 5.0 6.0 0.00 0.77 0.26 87 1016.4
20171023011315 49 129 6.0 6.0 0.00 0.77 0.26 87 1016.5
20171023011234 49 143 6.0 6.0 0.00 0.77 0.26 87 1016.5
20171023011040 49 143 5.0 6.0 0.00 0.77 0.26 87 1016.5
20171023010935 49 147 4.0 5.0 0.00 0.77 0.26 87 1016.5
20171023010849 49 148 4.0 5.0 0.00 0.77 0.26 87 1016.5
20171023010759 49 150 4.0 5.0 0.00 0.77 0.26 87 1016.5
20171023010122 49 150 3.0 7.0 0.00 0.77 0.26 87 1016.4
20171023010008 49 153 3.0 7.0 0.00 0.77 0.26 87 1016.4
20171023005928 49 134 4.0 7.0 0.00 0.77 0.26 87 1016.4
20171023005825 49 123 3.0 6.0 0.00 0.77 0.26 87 1016.3
20171023005449 49 100 2.0 7.0 0.00 0.77 0.26 86 1016.4
20171023005406 49 98 2.0 7.0 0.00 0.77 0.26 86 1016.4
20171023005302 49 93 3.0 7.0 0.00 0.77 0.26 86 1016.4
20171023005159 49 115 4.0 7.0 0.00 0.77 0.26 86 1016.3
20171023005109 49 132 4.0 7.0 0.00 0.77 0.26 86 1016.4
20171023005007 49 129 4.0 7.0 0.00 0.77 0.26 86 1016.4
20171023004902 49 123 4.0 7.0 0.00 0.77 0.26 86 1016.5
20171023004758 49 134 4.0 7.0 0.00 0.77 0.26 86 1016.5
20171023004652 49 157 4.0 7.0 0.00 0.77 0.26 86 1016.4
20171023004608 49 138 4.0 7.0 0.00 0.77 0.26 86 1016.4
20171023004522 49 134 4.0 7.0 0.00 0.77 0.26 86 1016.4
20171023004443 49 136 4.0 7.0 0.00 0.77 0.26 86 1016.4
20171023004401 49 140 4.0 5.0 0.00 0.77 0.26 86 1016.4
20171023004250 49 144 4.0 5.0 0.00 0.77 0.26 86 1016.4
20171023004201 49 132 4.0 5.0 0.00 0.77 0.26 86 1016.5
20171023004058 50 140 4.0 5.0 0.00 0.77 0.26 86 1016.5
20171023003952 50 159 4.0 5.0 0.00 0.77 0.26 86 1016.5
20171023003905 50 136 4.0 5.0 0.00 0.77 0.26 86 1016.6
20171023003803 50 149 4.0 5.0 0.00 0.77 0.26 86 1016.6
20171023003656 50 147 4.0 7.0 0.00 0.77 0.26 86 1016.5
20171023003604 50 147 4.0 7.0 0.00 0.77 0.26 86 1016.5
20171023003504 50 139 4.0 7.0 0.00 0.77 0.26 86 1016.5
20171023003400 50 143 4.0 7.0 0.00 0.77 0.26 86 1016.5
20171023003255 50 140 4.0 7.0 0.00 0.77 0.26 86 1016.5
20171023003154 50 145 4.0 7.0 0.00 0.77 0.26 86 1016.5
20171023003049 50 135 4.0 7.0 0.00 0.77 0.26 86 1016.5
20171023002959 50 130 4.0 7.0 0.00 0.77 0.26 86 1016.5
20171023002800 50 132 4.0 7.0 0.00 0.77 0.26 86 1016.5
20171023002655 50 130 4.0 7.0 0.00 0.77 0.26 86 1016.5
20171023002556 50 133 4.0 5.0 0.00 0.77 0.26 86 1016.5
20171023002507 50 134 3.0 5.0 0.00 0.77 0.26 86 1016.5
20171023002402 50 141 3.0 4.0 0.00 0.77 0.26 86 1016.5
20171023002258 50 134 3.0 5.0 0.00 0.77 0.26 86 1016.5
20171023002203 50 139 3.0 5.0 0.00 0.77 0.26 86 1016.5
20171023002057 50 144 3.0 5.0 0.00 0.77 0.26 86 1016.5
20171023001956 50 142 3.0 5.0 0.00 0.77 0.26 86 1016.5
20171023001852 50 128 3.0 5.0 0.00 0.77 0.26 85 1016.5
20171023001801 50 130 3.0 5.0 0.00 0.77 0.26 85 1016.6
20171023001655 50 140 3.0 5.0 0.00 0.77 0.26 85 1016.6
20171023001549 51 145 4.0 5.0 0.00 0.77 0.26 85 1016.6
20171023001446 51 134 4.0 5.0 0.00 0.77 0.26 85 1016.6
20171023001345 51 138 4.0 5.0 0.00 0.77 0.26 85 1016.6
20171023001247 51 140 4.0 5.0 0.00 0.77 0.26 85 1016.6
20171023001155 51 142 4.0 5.0 0.00 0.77 0.26 85 1016.6
20171023001050 51 140 4.0 5.0 0.00 0.77 0.26 85 1016.6
20171023000947 51 144 4.0 5.0 0.00 0.77 0.26 85 1016.7
20171023000906 51 132 3.0 5.0 0.00 0.77 0.26 85 1016.7
20171023000801 51 148 3.0 6.0 0.00 0.77 0.26 85 1016.6
20171023000649 51 138 3.0 5.0 0.00 0.77 0.26 84 1016.6
20171023000604 51 140 2.0 6.0 0.00 0.77 0.26 84 1016.6
20171023000454 51 95 2.0 6.0 0.00 0.77 0.26 84 1016.6
20171023000411 51 122 2.0 6.0 0.00 0.77 0.26 84 1016.6
20171023000300 51 119 3.0 6.0 0.00 0.77 0.26 84 1016.6
20171023000159 51 136 4.0 6.0 0.00 0.77 0.26 84 1016.6
20171023000052 51 128 4.0 5.0 0.00 0.77 0.26 84 1016.6
20171022235949 51 129 4.0 5.0 0.00 0.77 0.26 84 1016.6
20171022235846 51 145 4.0 5.0 0.00 0.77 0.26 83 1016.6
20171022235654 52 149 4.0 5.0 0.00 0.77 0.26 83 1016.7
20171022235552 52 146 4.0 5.0 0.00 0.77 0.26 83 1016.7
20171022235449 52 152 4.0 5.0 0.00 0.77 0.26 83 1016.7
20171022235346 52 152 4.0 5.0 0.00 0.77 0.26 83 1016.7
20171022235300 52 150 4.0 5.0 0.00 0.77 0.26 82 1016.7
20171022235152 52 140 3.0 5.0 0.00 0.77 0.26 82 1016.6
20171022235047 52 144 3.0 5.0 0.00 0.77 0.26 81 1016.6
20171022235005 52 146 4.0 5.0 0.00 0.77 0.26 81 1016.6
20171022234901 52 134 3.0 5.0 0.00 0.77 0.26 81 1016.6
20171022234756 52 138 3.0 4.0 0.00 0.77 0.26 81 1016.5
20171022234646 52 130 3.0 4.0 0.00 0.77 0.26 81 1016.5
20171022234603 53 138 3.0 4.0 0.00 0.77 0.26 81 1016.5
20171022234501 53 138 3.0 4.0 0.00 0.77 0.26 81 1016.5
20171022234358 53 132 3.0 4.0 0.00 0.77 0.26 81 1016.5
20171022234250 53 134 3.0 4.0 0.00 0.77 0.26 81 1016.5
20171022234158 53 137 3.0 4.0 0.00 0.77 0.26 81 1016.5
20171022234057 53 113 2.0 4.0 0.00 0.77 0.26 81 1016.5
20171022233952 53 118 1.0 3.0 0.00 0.77 0.26 81 1016.5
20171022233905 53 123 1.0 3.0 0.00 0.77 0.26 81 1016.5
20171022233801 53 109 1.0 3.0 0.00 0.77 0.26 81 1016.4
20171022233649 53 134 0.0 3.0 0.00 0.77 0.26 81 1016.5
20171022233604 53 119 0.0 3.0 0.00 0.77 0.26 81 1016.5
20171022233500 53 121 1.0 3.0 0.00 0.77 0.26 80 1016.4
20171022233359 53 134 1.0 3.0 0.00 0.77 0.26 80 1016.4
20171022233255 53 115 1.0 4.0 0.00 0.77 0.26 80 1016.4
20171022233205 53 110 1.0 4.0 0.00 0.77 0.26 80 1016.4
20171022233059 53 106 1.0 4.0 0.00 0.77 0.26 80 1016.4
20171022232945 53 148 1.0 4.0 0.00 0.77 0.26 80 1016.4
20171022232859 53 148 0.0 4.0 0.00 0.77 0.26 80 1016.4
20171022232756 54 131 0.0 4.0 0.00 0.77 0.26 80 1016.4
20171022232704 54 123 0.0 4.0 0.00 0.77 0.26 80 1016.4
20171022232603 54 109 1.0 4.0 0.00 0.77 0.26 80 1016.5
20171022232459 54 107 2.0 4.0 0.00 0.77 0.26 79 1016.4
20171022232355 54 130 3.0 4.0 0.00 0.77 0.26 79 1016.4
20171022232251 54 133 3.0 5.0 0.00 0.77 0.26 79 1016.4
20171022232203 54 118 2.0 5.0 0.00 0.77 0.26 79 1016.4
20171022232059 54 114 2.0 4.0 0.00 0.77 0.26 79 1016.5
20171022231957 54 145 2.0 4.0 0.00 0.77 0.26 79 1016.5
20171022231857 54 88 2.0 4.0 0.00 0.77 0.26 79 1016.5
20171022231754 54 118 2.0 4.0 0.00 0.77 0.26 79 1016.5
20171022231703 54 114 1.0 4.0 0.00 0.77 0.26 78 1016.5
20171022231559 54 131 1.0 3.0 0.00 0.77 0.26 78 1016.5
20171022231451 55 107 0.0 3.0 0.00 0.77 0.26 78 1016.5
20171022231350 55 107 1.0 3.0 0.00 0.77 0.26 78 1016.5
20171022231247 55 138 0.0 3.0 0.00 0.77 0.26 78 1016.5
20171022231157 55 120 0.0 3.0 0.00 0.77 0.26 78 1016.6
20171022231054 55 142 1.0 3.0 0.00 0.77 0.26 78 1016.6
20171022230949 55 134 1.0 3.0 0.00 0.77 0.26 77 1016.6
20171022230904 55 130 1.0 3.0 0.00 0.77 0.26 78 1016.6
20171022230802 55 115 1.0 3.0 0.00 0.77 0.26 77 1016.6
20171022230654 55 123 1.0 4.0 0.00 0.77 0.26 77 1016.6
20171022230550 55 152 1.0 4.0 0.00 0.77 0.26 77 1016.6
20171022230506 55 158 1.0 4.0 0.00 0.77 0.26 77 1016.6
20171022230401 55 140 1.0 4.0 0.00 0.77 0.26 77 1016.5
20171022230254 55 138 0.0 4.0 0.00 0.77 0.26 77 1016.5
20171022230156 55 121 0.0 4.0 0.00 0.77 0.26 77 1016.6
20171022230109 55 111 1.0 4.0 0.00 0.77 0.26 77 1016.6
20171022225804 55 121 3.0 4.0 0.00 0.77 0.26 77 1016.5
20171022225713 55 146 2.0 4.0 0.00 0.77 0.26 77 1016.5
20171022225613 55 142 2.0 4.0 0.00 0.77 0.26 78 1016.5
20171022225516 55 125 1.0 4.0 0.00 0.77 0.26 78 1016.5
20171022225414 55 130 1.0 4.0 0.00 0.77 0.26 78 1016.4
20171022225317 55 107 1.0 4.0 0.00 0.77 0.26 78 1016.4
20171022225228 55 141 1.0 4.0 0.00 0.77 0.26 77 1016.4
20171022225130 55 84 2.0 4.0 0.00 0.77 0.26 77 1016.4
20171022225040 55 131 2.0 4.0 0.00 0.77 0.26 77 1016.5
20171022224952 55 131 2.0 4.0 0.00 0.77 0.26 77 1016.5
20171022224846 55 126 1.0 4.0 0.00 0.77 0.26 77 1016.5
20171022224648 55 112 1.0 3.0 0.00 0.77 0.26 76 1016.5
20171022224540 55 147 1.0 3.0 0.00 0.77 0.26 76 1016.5
20171022224445 55 138 1.0 3.0 0.00 0.77 0.26 76 1016.5
20171022224338 56 132 0.0 2.0 0.00 0.77 0.26 75 1016.5
20171022224230 56 148 0.0 2.0 0.00 0.77 0.26 75 1016.4
20171022224114 56 122 0.0 2.0 0.00 0.77 0.26 75 1016.4
20171022224008 56 129 0.0 2.0 0.00 0.77 0.26 75 1016.4
20171022223904 56 92 0.0 2.0 0.00 0.77 0.26 74 1016.5
20171022223804 56 111 0.0 2.0 0.00 0.77 0.26 74 1016.5
20171022223656 56 96 0.0 2.0 0.00 0.77 0.26 74 1016.4
20171022223556 56 112 0.0 2.0 0.00 0.77 0.26 74 1016.4
20171022223454 56 121 0.0 3.0 0.00 0.77 0.26 74 1016.4
20171022223354 56 104 0.0 3.0 0.00 0.77 0.26 74 1016.5
20171022223253 56 137 1.0 3.0 0.00 0.77 0.26 74 1016.5
20171022223152 56 127 1.0 3.0 0.00 0.77 0.26 73 1016.4
20171022223047 56 130 1.0 3.0 0.00 0.77 0.26 73 1016.5
20171022222947 56 139 1.0 3.0 0.00 0.77 0.26 73 1016.5
20171022222844 56 127 1.0 3.0 0.00 0.77 0.26 73 1016.5
20171022222804 56 110 1.0 3.0 0.00 0.77 0.26 73 1016.4
20171022222658 56 195 1.0 3.0 0.00 0.77 0.26 73 1016.4
20171022222559 56 86 1.0 3.0 0.00 0.77 0.26 73 1016.4
20171022222444 56 105 0.0 2.0 0.00 0.77 0.26 73 1016.5
20171022222345 56 107 0.0 2.0 0.00 0.77 0.26 73 1016.4
20171022222245 56 98 1.0 2.0 0.00 0.77 0.26 73 1016.5
20171022222159 57 126 1.0 2.0 0.00 0.77 0.26 73 1016.5
20171022222056 57 128 0.0 2.0 0.00 0.77 0.26 73 1016.6
20171022221952 57 113 0.0 2.0 0.00 0.77 0.26 73 1016.5
20171022221855 57 136 0.0 2.0 0.00 0.77 0.26 73 1016.5
20171022221751 57 115 1.0 2.0 0.00 0.77 0.26 72 1016.5
20171022221704 57 109 1.0 2.0 0.00 0.77 0.26 72 1016.5
20171022221602 57 119 1.0 2.0 0.00 0.77 0.26 72 1016.4
20171022221454 57 101 1.0 2.0 0.00 0.77 0.26 72 1016.5
20171022221352 57 108 1.0 2.0 0.00 0.77 0.26 72 1016.4
20171022221251 57 98 1.0 2.0 0.00 0.77 0.26 72 1016.4
20171022221148 57 140 1.0 2.0 0.00 0.77 0.26 72 1016.4
20171022221046 57 96 0.0 1.0 0.00 0.77 0.26 72 1016.4
20171022221004 57 133 0.0 1.0 0.00 0.77 0.26 72 1016.4
20171022220902 57 138 0.0 1.0 0.00 0.77 0.26 71 1016.5
20171022220800 57 96 0.0 1.0 0.00 0.77 0.26 71 1016.5
20171022220651 57 117 0.0 0.0 0.00 0.77 0.26 71 1016.5
20171022220547 57 143 0.0 0.0 0.00 0.77 0.26 70 1016.5
20171022220450 57 116 0.0 0.0 0.00 0.77 0.26 70 1016.5
20171022220349 57 100 0.0 0.0 0.00 0.77 0.26 70 1016.5
20171022220304 57 111 0.0 0.0 0.00 0.77 0.26 70 1016.5
20171022220149 57 122 0.0 0.0 0.00 0.77 0.26 70 1016.4
20171022220103 57 122 0.0 0.0 0.00 0.77 0.26 70 1016.4
20171022220002 57 122 0.0 0.0 0.00 0.77 0.26 71 1016.4
20171022215900 57 119 0.0 0.0 0.00 0.77 0.26 70 1016.3
20171022215758 57 103 0.0 0.0 0.00 0.77 0.26 69 1016.3
20171022215655 57 101 0.0 1.0 0.00 0.77 0.26 69 1016.3
20171022215552 57 153 0.0 1.0 0.00 0.77 0.26 68 1016.3
20171022215448 57 106 0.0 1.0 0.00 0.77 0.26 68 1016.3
20171022215347 57 107 0.0 1.0 0.00 0.77 0.26 68 1016.3
20171022215245 57 99 0.0 1.0 0.00 0.77 0.26 68 1016.3
20171022215159 58 98 0.0 1.0 0.00 0.77 0.26 69 1016.3
20171022215057 58 97 0.0 1.0 0.00 0.77 0.26 69 1016.2
20171022214957 58 95 0.0 1.0 0.00 0.77 0.26 69 1016.3
20171022214854 58 94 0.0 1.0 0.00 0.77 0.26 67 1016.3
20171022214753 58 104 0.0 0.0 0.00 0.77 0.26 68 1016.3
20171022214647 58 104 0.0 0.0 0.00 0.77 0.26 69 1016.3
20171022214544 58 95 0.0 0.0 0.00 0.77 0.26 68 1016.3
20171022214503 58 95 0.0 0.0 0.00 0.77 0.26 68 1016.3
20171022214347 58 95 0.0 0.0 0.00 0.77 0.26 68 1016.3
20171022214244 58 95 0.0 0.0 0.00 0.77 0.26 69 1016.3
20171022214155 58 95 0.0 0.0 0.00 0.77 0.26 69 1016.3
20171022214053 58 95 0.0 0.0 0.00 0.77 0.26 68 1016.3
20171022213951 58 95 0.0 0.0 0.00 0.77 0.26 68 1016.3
20171022213849 58 95 0.0 0.0 0.00 0.77 0.26 68 1016.2
20171022213747 58 71 0.0 0.0 0.00 0.77 0.26 68 1016.3
20171022213700 58 65 0.0 0.0 0.00 0.77 0.26 68 1016.2
20171022213459 57 49 0.0 0.0 0.00 0.77 0.26 69 1016.3
20171022213354 57 44 0.0 0.0 0.00 0.77 0.26 69 1016.2
20171022213253 57 44 0.0 0.0 0.00 0.77 0.26 68 1016.3
20171022213145 57 44 0.0 0.0 0.00 0.77 0.26 70 1016.3
20171022213045 57 26 0.0 0.0 0.00 0.77 0.26 69 1016.3
20171022212948 57 26 0.0 0.0 0.00 0.77 0.26 69 1016.3
20171022212845 57 26 0.0 0.0 0.00 0.77 0.26 69 1016.4
20171022212800 57 22 0.0 1.0 0.00 0.77 0.26 69 1016.4
20171022212648 57 15 0.0 1.0 0.00 0.77 0.26 69 1016.4
20171022212556 57 15 0.0 1.0 0.00 0.77 0.26 69 1016.4
20171022212456 57 15 0.0 1.0 0.00 0.77 0.26 69 1016.4
20171022212352 57 15 0.0 1.0 0.00 0.77 0.26 70 1016.4
20171022212304 57 15 0.0 1.0 0.00 0.77 0.26 69 1016.4
20171022212158 57 15 0.0 1.0 0.00 0.77 0.26 69 1016.4
20171022212048 57 15 0.0 2.0 0.00 0.77 0.26 69 1016.4
20171022211946 57 15 0.0 2.0 0.00 0.77 0.26 69 1016.4
20171022211902 57 10 0.0 2.0 0.00 0.77 0.26 68 1016.4
20171022211759 57 10 0.0 2.0 0.00 0.77 0.26 68 1016.4
20171022211649 57 11 0.0 2.0 0.00 0.77 0.26 68 1016.4
20171022211547 57 11 0.0 2.0 0.00 0.77 0.26 69 1016.4
20171022211450 57 12 0.0 2.0 0.00 0.77 0.26 69 1016.4
20171022211348 57 11 1.0 2.0 0.00 0.77 0.26 68 1016.3
20171022211247 57 13 1.0 2.0 0.00 0.77 0.26 68 1016.3
20171022211200 57 345 1.0 2.0 0.00 0.77 0.26 68 1016.3
20171022211059 57 346 1.0 2.0 0.00 0.77 0.26 68 1016.3
20171022210957 57 346 1.0 2.0 0.00 0.77 0.26 68 1016.3
20171022210855 57 346 1.0 2.0 0.00 0.77 0.26 69 1016.4
20171022210755 57 329 1.0 2.0 0.00 0.77 0.26 68 1016.4
20171022210648 57 298 1.0 3.0 0.00 0.77 0.26 69 1016.4
20171022210545 57 298 1.0 3.0 0.00 0.77 0.26 69 1016.4
20171022210444 57 298 2.0 4.0 0.00 0.77 0.26 69 1016.3
20171022210402 57 300 2.0 4.0 0.00 0.77 0.26 68 1016.3
20171022210301 57 311 1.0 4.0 0.00 0.77 0.26 68 1016.3
20171022210151 57 311 1.0 4.0 0.00 0.77 0.26 68 1016.3
20171022210047 57 305 2.0 5.0 0.00 0.77 0.26 68 1016.3
20171022205946 57 301 2.0 5.0 0.00 0.77 0.26 68 1016.3
20171022205901 57 309 2.0 5.0 0.00 0.77 0.26 68 1016.3
20171022205715 57 317 2.0 5.0 0.00 0.77 0.26 68 1016.3
20171022205602 57 306 2.0 5.0 0.00 0.77 0.26 69 1016.3
20171022205457 57 313 2.0 6.0 0.00 0.77 0.26 69 1016.3
20171022205355 57 313 3.0 6.0 0.00 0.77 0.26 68 1016.3
20171022205258 57 307 3.0 6.0 0.00 0.77 0.26 68 1016.3
20171022205152 57 289 3.0 6.0 0.00 0.77 0.26 69 1016.3
20171022205047 57 298 3.0 6.0 0.00 0.77 0.26 68 1016.2
20171022204947 57 290 4.0 6.0 0.00 0.77 0.26 70 1016.2
20171022204844 57 294 4.0 6.0 0.00 0.77 0.26 68 1016.3
20171022204803 57 300 4.0 8.0 0.00 0.77 0.26 68 1016.2
20171022204559 57 281 3.0 8.0 0.00 0.77 0.26 69 1016.3
20171022204355 57 324 4.0 8.0 0.00 0.77 0.26 69 1016.2
20171022204251 57 317 3.0 8.0 0.00 0.77 0.26 69 1016.2